N1UEC Weather Reports


Display with metric or nautical units.
time (UTC)temp
F
wind
direction
speed
MPH
gust
MPH
rain 1hr
in
rain 24hr
in
rain mn
in
humidity
%
barometer
mb
20260507021013 56 60 1.0 6.0 0.00 0.04 0.04 98 1008.0
20260507020856 56 39 1.0 5.0 0.00 0.04 0.04 98 1007.9
20260507020820 56 345 0.0 4.0 0.00 0.04 0.04 98 1007.9
20260507020702 56 59 0.0 5.0 0.00 0.04 0.04 98 1008.0
20260507020607 56 72 0.0 5.0 0.00 0.04 0.04 98 1007.9
20260507020509 56 40 1.0 5.0 0.00 0.04 0.04 98 1007.8
20260507020356 56 3 1.0 5.0 0.00 0.04 0.04 98 1007.8
20260507020300 56 29 0.0 5.0 0.00 0.04 0.04 98 1007.9
20260507020204 56 33 0.0 6.0 0.00 0.04 0.04 98 1007.9
20260507020139 56 33 0.0 6.0 0.00 0.04 0.04 98 1007.8
20260507020003 56 33 1.0 6.0 0.00 0.04 0.04 98 1007.9
20260507015906 56 39 2.0 6.0 0.00 0.04 0.04 98 1007.9
20260507015810 56 15 1.0 6.0 0.00 0.04 0.04 98 1008.0
20260507015657 56 21 0.0 6.0 0.00 0.04 0.04 98 1008.0
20260507015601 56 71 1.0 6.0 0.00 0.04 0.04 98 1008.0
20260507015503 56 72 2.0 6.0 0.00 0.04 0.04 98 1007.9
20260507015407 56 20 3.0 6.0 0.00 0.04 0.04 98 1007.9
20260507015310 56 75 3.0 6.0 0.00 0.04 0.04 98 1007.9
20260507015214 56 60 1.0 7.0 0.00 0.04 0.04 98 1007.9
20260507015102 56 47 1.0 6.0 0.00 0.04 0.04 98 1008.0
20260507015025 56 47 3.0 6.0 0.00 0.04 0.04 98 1008.0
20260507014907 56 333 2.0 7.0 0.00 0.04 0.04 98 1007.9
20260507014811 56 9 2.0 6.0 0.00 0.04 0.04 98 1007.9
20260507014714 56 53 2.0 7.0 0.00 0.04 0.04 98 1008.0
20260507014557 56 25 1.0 5.0 0.00 0.04 0.04 98 1008.0
20260507014504 56 57 0.0 5.0 0.00 0.04 0.04 98 1008.0
20260507014407 56 46 0.0 6.0 0.00 0.04 0.04 98 1008.1
20260507014310 56 46 1.0 6.0 0.00 0.04 0.04 98 1008.1
20260507014213 56 40 1.0 10.0 0.00 0.04 0.04 98 1008.1
20260507014056 56 32 1.0 10.0 0.00 0.04 0.04 98 1008.1
20260507013958 56 53 1.0 10.0 0.00 0.04 0.04 98 1008.0
20260507013906 56 58 1.0 10.0 0.00 0.04 0.04 98 1008.0
20260507013810 56 33 1.0 10.0 0.00 0.04 0.04 98 1008.0
20260507013713 56 39 3.0 10.0 0.00 0.04 0.04 98 1008.0
20260507013557 56 4 2.0 10.0 0.00 0.04 0.04 98 1008.1
20260507013459 56 358 2.0 10.0 0.00 0.04 0.04 98 1008.1
20260507013423 56 22 2.0 10.0 0.00 0.04 0.04 98 1008.1
20260507013305 56 51 0.0 3.0 0.00 0.04 0.04 98 1008.1
20260507013213 56 51 1.0 3.0 0.00 0.04 0.04 98 1008.1
20260507013056 56 358 0.0 3.0 0.00 0.04 0.04 98 1008.1
20260507012958 56 37 1.0 3.0 0.00 0.04 0.04 98 1008.2
20260507012902 56 25 1.0 3.0 0.00 0.04 0.04 98 1008.2
20260507012826 56 18 1.0 3.0 0.00 0.04 0.04 98 1008.2
20260507012708 56 20 0.0 4.0 0.00 0.04 0.04 98 1008.2
20260507012557 56 39 0.0 5.0 0.00 0.04 0.04 98 1008.3
20260507012459 56 38 0.0 7.0 0.00 0.04 0.04 98 1008.4
20260507012403 56 39 0.0 7.0 0.00 0.04 0.04 98 1008.4
20260507012307 56 39 0.0 7.0 0.00 0.04 0.04 98 1008.4
20260507012209 56 39 0.0 7.0 0.00 0.04 0.04 98 1008.4
20260507012113 56 38 1.0 8.0 0.00 0.04 0.04 98 1008.4
20260507012000 56 345 1.0 8.0 0.00 0.04 0.04 98 1008.4
20260507011903 56 63 1.0 8.0 0.00 0.04 0.04 98 1008.4
20260507011807 56 44 3.0 8.0 0.00 0.04 0.04 98 1008.4
20260507011710 56 48 3.0 8.0 0.00 0.04 0.04 98 1008.4
20260507011613 56 50 2.0 8.0 0.00 0.04 0.04 98 1008.4
20260507011456 56 39 2.0 8.0 0.00 0.04 0.04 98 1008.4
20260507011403 56 40 2.0 8.0 0.00 0.04 0.04 98 1008.4
20260507011327 56 23 2.0 9.0 0.00 0.04 0.04 98 1008.4
20260507011210 56 39 1.0 7.0 0.00 0.04 0.04 98 1008.4
20260507011114 56 5 1.0 7.0 0.00 0.04 0.04 98 1008.4
20260507010956 56 359 2.0 7.0 0.00 0.04 0.04 98 1008.3
20260507010900 56 28 2.0 7.0 0.00 0.04 0.04 98 1008.4
20260507010807 56 12 3.0 8.0 0.00 0.04 0.04 98 1008.3
20260507010711 56 57 2.0 7.0 0.00 0.04 0.04 98 1008.3
20260507010615 56 62 1.0 7.0 0.00 0.04 0.04 98 1008.3
20260507010457 56 37 2.0 7.0 0.00 0.04 0.04 98 1008.3
20260507010400 56 22 2.0 7.0 0.00 0.04 0.04 98 1008.3
20260507010304 56 325 2.0 7.0 0.00 0.04 0.04 98 1008.3
20260507010211 56 18 2.0 7.0 0.00 0.04 0.04 98 1008.4
20260507010127 56 12 2.0 7.0 0.00 0.04 0.04 98 1008.4
20260507010011 56 39 1.0 6.0 0.00 0.04 0.04 98 1008.4
20260507005914 56 69 1.0 6.0 0.00 0.04 0.04 98 1008.4
20260507005757 56 49 1.0 6.0 0.00 0.04 0.04 98 1008.4
20260507005701 56 1 2.0 6.0 0.00 0.04 0.04 98 1008.4
20260507005609 56 350 1.0 6.0 0.00 0.04 0.04 98 1008.5
20260507005512 56 40 1.0 6.0 0.00 0.04 0.04 98 1008.4
20260507005415 56 25 1.0 6.0 0.00 0.04 0.04 98 1008.4
20260507005258 56 21 2.0 6.0 0.00 0.04 0.04 98 1008.4
20260507005201 56 21 1.0 6.0 0.00 0.04 0.04 98 1008.4
20260507005105 56 49 1.0 9.0 0.00 0.04 0.04 98 1008.5
20260507005007 56 21 1.0 9.0 0.00 0.04 0.04 98 1008.4
20260507004855 56 69 1.0 9.0 0.00 0.04 0.04 98 1008.4
20260507004819 56 69 2.0 9.0 0.00 0.04 0.04 98 1008.5
20260507004721 56 56 1.0 9.0 0.00 0.04 0.04 98 1008.5
20260507004604 56 59 0.0 9.0 0.00 0.04 0.04 98 1008.5
20260507004506 56 67 1.0 9.0 0.00 0.04 0.04 98 1008.5
20260507004430 56 67 2.0 9.0 0.00 0.04 0.04 98 1008.4
20260507004333 56 11 2.0 10.0 0.00 0.04 0.04 98 1008.4
20260507004159 56 25 0.0 7.0 0.00 0.04 0.04 98 1008.4
20260507004104 56 359 1.0 7.0 0.00 0.04 0.04 98 1008.3
20260507004006 56 358 1.0 8.0 0.00 0.04 0.04 98 1008.3
20260507003910 56 32 2.0 8.0 0.00 0.04 0.04 98 1008.3
20260507003834 56 50 2.0 9.0 0.00 0.04 0.04 98 1008.4
20260507003656 56 25 2.0 9.0 0.00 0.04 0.04 98 1008.3
20260507003559 56 3 3.0 12.0 0.00 0.04 0.04 98 1008.3
20260507003506 56 3 3.0 12.0 0.00 0.04 0.04 98 1008.3
20260507003409 56 23 2.0 12.0 0.00 0.04 0.04 98 1008.4
20260507003313 56 49 2.0 12.0 0.00 0.04 0.04 98 1008.3
20260507003156 56 331 1.0 12.0 0.00 0.04 0.04 98 1008.4
20260507003101 56 53 2.0 12.0 0.00 0.04 0.04 98 1008.3
20260507003004 56 33 3.0 12.0 0.00 0.04 0.04 98 1008.3
20260507002911 56 21 4.0 12.0 0.00 0.04 0.04 98 1008.2
20260507002754 56 359 4.0 11.0 0.00 0.04 0.04 98 1008.2
20260507002657 56 8 2.0 9.0 0.00 0.04 0.04 98 1008.2
20260507002601 56 49 3.0 9.0 0.00 0.04 0.04 98 1008.1
20260507002504 56 23 3.0 9.0 0.00 0.04 0.04 98 1008.1
20260507002427 56 347 2.0 9.0 0.00 0.04 0.04 98 1008.1
20260507002314 56 5 3.0 9.0 0.00 0.04 0.04 98 1008.1
20260507002158 56 12 3.0 10.0 0.00 0.04 0.04 98 1008.2
20260507002102 56 34 3.0 8.0 0.00 0.04 0.04 98 1008.2
20260507002004 56 36 2.0 8.0 0.00 0.04 0.04 98 1008.2
20260507001908 56 37 2.0 10.0 0.00 0.04 0.04 98 1008.2
20260507001812 56 16 2.0 10.0 0.00 0.04 0.04 98 1008.2
20260507001658 56 69 1.0 10.0 0.00 0.04 0.04 98 1008.3
20260507001602 56 25 1.0 10.0 0.00 0.04 0.04 98 1008.2
20260507001504 56 6 0.0 10.0 0.00 0.04 0.04 98 1008.3
20260507001408 56 28 2.0 10.0 0.00 0.04 0.04 98 1008.2
20260507001332 56 56 2.0 10.0 0.00 0.04 0.04 98 1008.3
20260507001154 56 341 2.0 10.0 0.00 0.04 0.04 98 1008.3
20260507001102 56 39 4.0 10.0 0.00 0.04 0.04 98 1008.3
20260507001004 56 30 2.0 8.0 0.00 0.04 0.04 98 1008.2
20260507000908 56 57 0.0 8.0 0.00 0.04 0.04 98 1008.3
20260507000811 56 56 0.0 8.0 0.00 0.04 0.04 98 1008.2
20260507000654 56 58 1.0 8.0 0.00 0.04 0.04 98 1008.3
20260507000558 56 56 3.0 8.0 0.00 0.04 0.04 98 1008.3
20260507000505 56 11 3.0 8.0 0.00 0.04 0.04 98 1008.2
20260507000408 56 25 3.0 8.0 0.00 0.04 0.04 98 1008.2
20260507000314 56 21 2.0 11.0 0.00 0.04 0.04 98 1008.2
20260507000215 56 32 2.0 11.0 0.00 0.04 0.04 98 1008.2
20260507000151 56 47 2.0 11.0 0.00 0.04 0.04 98 1008.2
20260506235954 55 337 1.0 11.0 0.00 0.04 0.04 98 1008.2
20260506235858 56 359 2.0 11.0 0.00 0.04 0.04 98 1008.2
20260506235826 55 44 2.0 11.0 0.00 0.04 0.04 98 1008.1
20260506235728 56 14 2.0 11.0 0.00 0.04 0.04 98 1008.2
20260506235631 55 25 4.0 11.0 0.00 0.04 0.04 98 1008.2
20260506235513 56 1 3.0 12.0 0.00 0.04 0.04 98 1008.1
20260506235356 55 51 2.0 8.0 0.00 0.04 0.04 98 1008.1
20260506235259 56 49 2.0 11.0 0.00 0.04 0.04 98 1008.1
20260506235223 56 72 1.0 11.0 0.00 0.04 0.04 98 1008.2
20260506235126 56 46 2.0 11.0 0.00 0.04 0.04 98 1008.1
20260506235011 55 60 2.0 11.0 0.00 0.04 0.04 98 1008.1
20260506234855 55 63 1.0 11.0 0.00 0.04 0.04 98 1008.2
20260506234758 55 3 3.0 11.0 0.00 0.04 0.04 98 1008.0
20260506234702 55 6 4.0 11.0 0.00 0.04 0.04 98 1008.1
20260506234605 55 4 5.0 11.0 0.01 0.04 0.04 98 1008.0
20260506234508 56 1 4.0 12.0 0.01 0.04 0.04 98 1008.0
20260506234355 56 13 4.0 10.0 0.01 0.04 0.04 98 1008.0
20260506234258 56 42 4.0 10.0 0.01 0.04 0.04 98 1008.0
20260506234202 56 31 2.0 10.0 0.01 0.04 0.04 98 1008.1
20260506234106 56 23 1.0 11.0 0.01 0.04 0.04 98 1008.0
20260506234008 56 46 2.0 11.0 0.01 0.04 0.04 98 1008.0
20260506233931 56 27 4.0 11.0 0.01 0.04 0.04 98 1008.0
20260506233757 56 58 3.0 11.0 0.01 0.04 0.04 98 1008.0
20260506233701 56 316 1.0 11.0 0.01 0.04 0.04 98 1008.0
20260506233605 56 44 0.0 11.0 0.01 0.04 0.04 98 1008.0
20260506233508 56 44 2.0 11.0 0.01 0.04 0.04 98 1008.0
20260506233411 56 12 5.0 11.0 0.01 0.04 0.04 98 1008.1
20260506233314 56 16 4.0 12.0 0.01 0.04 0.04 98 1008.0
20260506233201 56 55 2.0 9.0 0.01 0.04 0.04 98 1008.0
20260506233105 56 11 1.0 9.0 0.01 0.04 0.04 98 1008.0
20260506233007 56 27 1.0 9.0 0.01 0.04 0.04 98 1008.1
20260506232911 56 28 2.0 10.0 0.01 0.04 0.04 97 1008.0
20260506232754 56 47 2.0 10.0 0.01 0.04 0.04 97 1008.0
20260506232657 56 22 2.0 10.0 0.01 0.04 0.04 97 1008.0
20260506232606 56 21 5.0 10.0 0.01 0.04 0.04 97 1008.0
20260506232509 56 9 4.0 12.0 0.01 0.04 0.04 97 1008.0
20260506232412 56 58 1.0 12.0 0.01 0.04 0.04 97 1008.1
20260506232255 56 56 3.0 12.0 0.01 0.04 0.04 97 1008.1
20260506232159 56 69 4.0 12.0 0.01 0.04 0.04 97 1008.1
20260506232123 56 37 2.0 12.0 0.01 0.04 0.04 97 1008.0
20260506232004 56 28 1.0 12.0 0.01 0.04 0.04 97 1008.1
20260506231912 56 32 1.0 12.0 0.01 0.04 0.04 97 1008.1
20260506231755 56 69 4.0 12.0 0.01 0.04 0.04 97 1008.1
20260506231659 56 19 3.0 13.0 0.01 0.04 0.04 97 1008.1
20260506231603 56 345 1.0 8.0 0.01 0.04 0.04 97 1008.1
20260506231506 56 56 1.0 8.0 0.01 0.04 0.04 97 1008.1
20260506231409 56 60 1.0 8.0 0.01 0.04 0.04 97 1008.1
20260506231316 56 51 1.0 8.0 0.01 0.04 0.04 97 1008.2
20260506231159 56 32 1.0 8.0 0.01 0.04 0.04 97 1008.1
20260506231103 56 28 1.0 9.0 0.01 0.04 0.04 97 1008.1
20260506231005 56 332 2.0 11.0 0.01 0.04 0.04 97 1008.1
20260506230909 56 31 3.0 11.0 0.01 0.04 0.04 97 1008.1
20260506230812 56 10 4.0 11.0 0.01 0.04 0.04 97 1008.1
20260506230700 56 32 3.0 11.0 0.01 0.04 0.04 97 1008.1
20260506230624 56 338 1.0 11.0 0.01 0.04 0.04 97 1008.2
20260506230506 56 353 0.0 11.0 0.01 0.04 0.04 97 1008.2
20260506230430 56 51 1.0 11.0 0.01 0.04 0.04 97 1008.2
20260506230332 56 51 3.0 11.0 0.01 0.04 0.04 97 1008.2
20260506230215 56 345 4.0 11.0 0.01 0.04 0.04 97 1008.3
20260506230150 56 341 3.0 11.0 0.01 0.04 0.04 97 1008.3
20260506230013 56 61 2.0 9.0 0.01 0.04 0.04 97 1008.3
20260506225900 56 15 2.0 10.0 0.01 0.04 0.04 97 1008.2
20260506225804 56 69 0.0 7.0 0.01 0.04 0.04 97 1008.2
20260506225707 56 48 1.0 7.0 0.01 0.04 0.04 97 1008.2
20260506225612 56 48 2.0 8.0 0.01 0.04 0.04 97 1008.2
20260506225514 56 316 1.0 8.0 0.01 0.04 0.04 97 1008.2
20260506225357 57 25 1.0 9.0 0.01 0.04 0.04 97 1008.2
20260506225306 57 9 3.0 9.0 0.01 0.04 0.04 97 1008.3
20260506225208 57 42 2.0 9.0 0.02 0.04 0.04 97 1008.2
20260506225112 57 58 1.0 9.0 0.02 0.04 0.04 97 1008.2
20260506225014 57 51 2.0 9.0 0.02 0.04 0.04 97 1008.2
20260506224857 57 44 2.0 9.0 0.02 0.04 0.04 97 1008.1
20260506224800 57 28 2.0 11.0 0.02 0.04 0.04 97 1008.1
20260506224708 57 25 2.0 11.0 0.02 0.04 0.04 97 1008.1
20260506224612 57 29 3.0 11.0 0.01 0.03 0.03 97 1008.1
20260506224454 57 18 5.0 11.0 0.01 0.03 0.03 97 1008.1
20260506224357 57 28 3.0 11.0 0.01 0.03 0.03 97 1008.0
20260506224301 57 355 2.0 11.0 0.01 0.03 0.03 97 1008.0
20260506224225 57 23 2.0 11.0 0.01 0.03 0.03 97 1008.0
20260506224112 57 32 4.0 11.0 0.01 0.03 0.03 97 1008.0
20260506223954 57 336 5.0 11.0 0.01 0.03 0.03 97 1008.0
20260506223858 57 356 4.0 11.0 0.01 0.03 0.03 97 1007.9
20260506223801 57 40 5.0 11.0 0.01 0.03 0.03 97 1007.9
20260506223705 57 23 3.0 11.0 0.01 0.03 0.03 97 1007.9
20260506223608 57 12 3.0 13.0 0.01 0.03 0.03 97 1008.0
20260506223455 57 25 3.0 13.0 0.01 0.03 0.03 97 1008.0
20260506223359 57 75 2.0 13.0 0.01 0.03 0.03 97 1008.0
20260506223302 57 328 4.0 13.0 0.01 0.03 0.03 97 1008.0
20260506223205 57 30 4.0 13.0 0.01 0.03 0.03 97 1008.1
20260506223110 57 27 1.0 13.0 0.01 0.03 0.03 97 1008.0
20260506223033 57 41 2.0 13.0 0.01 0.03 0.03 97 1008.0
20260506222915 57 42 6.0 13.0 0.01 0.03 0.03 97 1008.0
20260506222801 57 25 5.0 14.0 0.01 0.03 0.03 97 1008.0
20260506222704 57 323 3.0 12.0 0.01 0.03 0.03 97 1008.0
20260506222608 57 342 4.0 12.0 0.01 0.03 0.03 97 1008.0
20260506222531 57 356 5.0 12.0 0.01 0.03 0.03 97 1008.0
20260506222413 57 341 3.0 12.0 0.01 0.03 0.03 97 1008.1
20260506222256 57 39 1.0 12.0 0.01 0.03 0.03 97 1008.1
20260506222204 57 35 2.0 12.0 0.01 0.03 0.03 97 1008.1
20260506222108 57 36 1.0 12.0 0.01 0.03 0.03 97 1008.2
20260506222010 57 16 2.0 12.0 0.01 0.03 0.03 97 1008.2
20260506221914 57 29 2.0 12.0 0.01 0.03 0.03 97 1008.2
20260506221757 57 49 1.0 9.0 0.01 0.03 0.03 97 1008.2
20260506221700 57 67 1.0 9.0 0.01 0.03 0.03 96 1008.1
20260506221625 57 56 2.0 9.0 0.01 0.03 0.03 96 1008.3
20260506221532 57 42 3.0 9.0 0.01 0.03 0.03 96 1008.2
20260506221355 57 15 4.0 9.0 0.01 0.03 0.03 96 1008.3
20260506221258 57 345 3.0 9.0 0.01 0.03 0.03 96 1008.3
20260506221202 57 354 2.0 9.0 0.01 0.03 0.03 96 1008.4
20260506221105 57 58 3.0 9.0 0.01 0.03 0.03 96 1008.3
20260506221007 57 37 3.0 9.0 0.01 0.03 0.03 96 1008.3
20260506220854 57 59 1.0 8.0 0.01 0.03 0.03 96 1008.3
20260506220758 57 23 3.0 8.0 0.01 0.03 0.03 96 1008.3
20260506220702 58 15 3.0 9.0 0.01 0.03 0.03 96 1008.4
20260506220606 58 343 4.0 9.0 0.01 0.03 0.03 96 1008.4
20260506220508 58 40 4.0 9.0 0.01 0.03 0.03 96 1008.5
20260506220431 58 348 2.0 9.0 0.01 0.03 0.03 96 1008.5
20260506220258 58 24 1.0 9.0 0.01 0.03 0.03 96 1008.4
20260506220201 58 32 2.0 9.0 0.01 0.03 0.03 95 1008.4
20260506220116 58 76 2.0 11.0 0.01 0.03 0.03 95 1008.4
20260506220001 58 335 3.0 13.0 0.01 0.03 0.03 95 1008.4
20260506215905 58 38 3.0 13.0 0.01 0.03 0.03 95 1008.4
20260506215808 58 8 1.0 13.0 0.01 0.03 0.03 95 1008.5
20260506215656 58 6 1.0 13.0 0.01 0.03 0.03 95 1008.4
20260506215559 58 6 2.0 13.0 0.01 0.03 0.03 95 1008.5
20260506215502 58 353 4.0 13.0 0.01 0.03 0.03 95 1008.5
20260506215425 58 25 5.0 16.0 0.01 0.03 0.03 95 1008.6
20260506215308 58 61 4.0 16.0 0.00 0.02 0.02 95 1008.5
20260506215212 58 8 4.0 16.0 0.00 0.02 0.02 95 1008.5
20260506215055 58 354 7.0 16.0 0.00 0.02 0.02 95 1008.5
20260506215001 59 335 6.0 16.0 0.01 0.02 0.02 95 1008.4
20260506214905 59 331 2.0 16.0 0.01 0.02 0.02 95 1008.4
20260506214808 59 62 1.0 16.0 0.01 0.02 0.02 94 1008.3
20260506214712 59 25 2.0 16.0 0.01 0.02 0.02 94 1008.4
20260506214556 59 68 5.0 16.0 0.01 0.02 0.02 94 1008.3
20260506214458 59 1 4.0 17.0 0.01 0.02 0.02 94 1008.4
20260506214426 59 33 1.0 9.0 0.01 0.02 0.02 94 1008.4
20260506214309 59 16 0.0 12.0 0.01 0.02 0.02 94 1008.4
20260506214213 59 52 1.0 12.0 0.01 0.02 0.02 94 1008.5
20260506214056 59 34 3.0 12.0 0.01 0.02 0.02 94 1008.5
20260506213958 59 54 3.0 12.0 0.01 0.02 0.02 93 1008.5
20260506213922 59 18 3.0 12.0 0.01 0.02 0.02 93 1008.5
20260506213826 59 79 3.0 12.0 0.01 0.02 0.02 93 1008.6
20260506213712 59 28 3.0 12.0 0.01 0.02 0.02 93 1008.6
20260506213616 59 57 4.0 12.0 0.01 0.02 0.02 93 1008.6
20260506213457 59 32 3.0 13.0 0.01 0.02 0.02 93 1008.5
20260506213401 59 5 1.0 8.0 0.01 0.02 0.02 93 1008.5
20260506213304 59 45 1.0 8.0 0.01 0.02 0.02 93 1008.6
20260506213208 59 25 2.0 8.0 0.01 0.02 0.02 93 1008.6
20260506213056 59 62 2.0 8.0 0.01 0.02 0.02 93 1008.6
20260506212958 59 37 2.0 14.0 0.01 0.02 0.02 93 1008.7
20260506212901 59 34 1.0 14.0 0.01 0.02 0.02 93 1008.7
20260506212805 59 29 1.0 14.0 0.01 0.02 0.02 93 1008.6
20260506212708 59 3 3.0 14.0 0.01 0.02 0.02 93 1008.6
20260506212632 59 39 2.0 14.0 0.01 0.02 0.02 93 1008.6
20260506212514 59 21 1.0 14.0 0.01 0.02 0.02 93 1008.7
20260506212422 59 41 2.0 14.0 0.01 0.02 0.02 93 1008.7
20260506212306 59 348 4.0 14.0 0.01 0.02 0.02 93 1008.6
20260506212207 59 5 4.0 14.0 0.01 0.02 0.02 93 1008.7
20260506212131 59 44 2.0 12.0 0.01 0.02 0.02 93 1008.7
20260506212013 59 49 3.0 12.0 0.01 0.02 0.02 93 1008.6
20260506211916 59 20 4.0 12.0 0.01 0.02 0.02 93 1008.6
20260506211759 59 20 2.0 13.0 0.01 0.02 0.02 93 1008.7
20260506211706 59 54 3.0 12.0 0.01 0.02 0.02 93 1008.7
20260506211630 59 47 6.0 12.0 0.01 0.02 0.02 93 1008.6
20260506211512 59 18 3.0 12.0 0.01 0.02 0.02 94 1008.7
20260506211355 59 32 1.0 12.0 0.01 0.02 0.02 94 1008.7
20260506211319 59 31 5.0 12.0 0.01 0.02 0.02 94 1008.7
20260506211201 59 28 6.0 12.0 0.01 0.02 0.02 94 1008.7
20260506211105 59 9 4.0 12.0 0.01 0.02 0.02 94 1008.7
20260506211011 59 326 3.0 12.0 0.01 0.02 0.02 94 1008.7
20260506210854 59 60 1.0 12.0 0.01 0.02 0.02 94 1008.7
20260506210758 59 5 0.0 12.0 0.02 0.02 0.02 94 1008.7
20260506210701 59 58 1.0 12.0 0.02 0.02 0.02 94 1008.7
20260506210627 59 58 1.0 12.0 0.02 0.02 0.02 94 1008.7
20260506210528 59 18 1.0 12.0 0.02 0.02 0.02 94 1008.7
20260506210410 59 360 2.0 12.0 0.02 0.02 0.02 94 1008.8
20260506210318 59 11 1.0 11.0 0.02 0.02 0.02 94 1008.8
20260506210221 59 58 3.0 11.0 0.02 0.02 0.02 94 1008.7
20260506210115 59 51 4.0 11.0 0.02 0.02 0.02 94 1008.8
20260506205959 59 41 2.0 8.0 0.02 0.02 0.02 94 1008.7
20260506205902 59 51 2.0 14.0 0.02 0.02 0.02 94 1008.7
20260506205806 59 341 3.0 14.0 0.02 0.02 0.02 94 1008.7
20260506205709 59 13 3.0 14.0 0.02 0.02 0.02 94 1008.7
20260506205617 59 20 2.0 14.0 0.02 0.02 0.02 94 1008.7
20260506205458 59 19 2.0 14.0 0.02 0.02 0.02 94 1008.7
20260506205422 59 15 1.0 14.0 0.02 0.02 0.02 94 1008.7
20260506205306 59 47 1.0 14.0 0.02 0.02 0.02 94 1008.8
20260506205228 59 28 4.0 14.0 0.02 0.02 0.02 94 1008.8
20260506205132 59 39 3.0 14.0 0.02 0.02 0.02 94 1008.8
20260506205013 59 354 2.0 14.0 0.01 0.01 0.01 94 1008.9
20260506204916 59 18 3.0 14.0 0.01 0.01 0.01 94 1008.7
20260506204803 59 76 3.0 14.0 0.01 0.01 0.01 94 1008.7
20260506204706 59 25 3.0 14.0 0.01 0.01 0.01 94 1008.9
20260506204611 59 41 4.0 14.0 0.01 0.01 0.01 93 1008.9
20260506204513 59 84 4.0 14.0 0.01 0.01 0.01 93 1008.9
20260506204357 59 41 5.0 15.0 0.01 0.01 0.01 93 1008.9
20260506204300 59 37 3.0 12.0 0.01 0.01 0.01 93 1008.9
20260506204208 59 51 1.0 12.0 0.01 0.01 0.01 93 1008.8
20260506204111 59 28 1.0 12.0 0.01 0.01 0.01 93 1008.8
20260506204014 59 25 1.0 12.0 0.01 0.01 0.01 93 1008.9
20260506203857 59 41 2.0 12.0 0.01 0.01 0.01 93 1008.9
20260506203801 59 43 3.0 12.0 0.01 0.01 0.01 93 1008.9
20260506203704 59 22 5.0 12.0 0.01 0.01 0.01 92 1009.0
20260506203612 59 330 5.0 13.0 0.01 0.01 0.01 92 1009.0
20260506203454 59 27 3.0 12.0 0.01 0.01 0.01 92 1009.0
20260506203357 60 8 2.0 12.0 0.01 0.01 0.01 92 1009.0
20260506203301 60 22 2.0 12.0 0.01 0.01 0.01 92 1009.0
20260506203205 60 70 2.0 12.0 0.01 0.01 0.01 92 1009.0
20260506203128 60 360 2.0 12.0 0.01 0.01 0.01 92 1009.0
20260506203010 60 8 2.0 12.0 0.01 0.01 0.01 92 1009.1
20260506202917 60 72 3.0 12.0 0.01 0.01 0.01 92 1009.1
20260506202800 60 49 2.0 10.0 0.01 0.01 0.01 92 1009.0
20260506202704 60 29 3.0 11.0 0.01 0.01 0.01 92 1009.0
20260506202628 60 354 3.0 12.0 0.01 0.01 0.01 92 1009.1
20260506202510 60 74 1.0 12.0 0.01 0.01 0.01 92 1009.0
20260506202412 60 13 2.0 12.0 0.01 0.01 0.01 92 1009.0
20260506202259 60 84 5.0 12.0 0.01 0.01 0.01 91 1009.0
20260506202203 60 14 4.0 12.0 0.01 0.01 0.01 92 1009.0
20260506202108 60 59 2.0 12.0 0.01 0.01 0.01 91 1009.0
20260506202030 60 51 3.0 12.0 0.01 0.01 0.01 91 1009.0
20260506201913 60 32 3.0 12.0 0.01 0.01 0.01 91 1008.8
20260506201756 60 325 4.0 12.0 0.01 0.01 0.01 91 1008.8
20260506201721 60 12 2.0 14.0 0.01 0.01 0.01 91 1008.9
20260506201609 60 75 2.0 14.0 0.01 0.01 0.01 91 1009.0
20260506201511 60 53 4.0 14.0 0.01 0.01 0.01 91 1008.9
20260506201354 60 35 3.0 14.0 0.01 0.01 0.01 91 1008.9
20260506201258 60 59 2.0 14.0 0.01 0.01 0.01 91 1009.0
20260506201201 60 347 2.0 14.0 0.01 0.01 0.01 91 1009.0
20260506201125 60 44 1.0 14.0 0.01 0.01 0.01 91 1009.1
20260506201007 60 22 3.0 14.0 0.01 0.01 0.01 91 1009.1
20260506200854 60 56 3.0 15.0 0.01 0.01 0.01 91 1009.1
20260506200758 60 342 1.0 16.0 0.00 0.00 0.00 91 1009.2
20260506200700 60 47 3.0 16.0 0.00 0.00 0.00 91 1009.1
20260506200605 60 319 3.0 16.0 0.00 0.00 0.00 91 1009.1
20260506200507 60 69 3.0 16.0 0.00 0.00 0.00 91 1009.0
20260506200431 60 333 5.0 16.0 0.00 0.00 0.00 90 1009.1
20260506200257 60 18 6.0 16.0 0.00 0.00 0.00 90 1009.1
20260506200201 60 353 4.0 16.0 0.00 0.00 0.00 90 1009.0
20260506200115 60 53 4.0 16.0 0.00 0.00 0.00 91 1009.0
20260506200000 60 32 4.0 16.0 0.00 0.00 0.00 90 1008.9
20260506195903 60 4 3.0 17.0 0.00 0.00 0.00 90 1009.1
20260506195807 60 34 4.0 13.0 0.00 0.00 0.00 90 1009.0
20260506195654 60 9 3.0 13.0 0.00 0.00 0.00 90 1009.0
20260506195559 60 359 3.0 13.0 0.00 0.00 0.00 90 1008.9
20260506195502 60 338 5.0 13.0 0.00 0.00 0.00 90 1008.8
20260506195405 60 355 5.0 13.0 0.00 0.00 0.00 89 1009.0
20260506195308 60 4 4.0 13.0 0.00 0.00 0.00 89 1009.0
20260506195212 60 51 3.0 13.0 0.00 0.00 0.00 89 1009.1
20260506195059 61 43 4.0 13.0 0.00 0.00 0.00 89 1009.0
20260506195002 61 6 2.0 13.0 0.00 0.00 0.00 89 1009.0
20260506194905 61 33 2.0 13.0 0.00 0.00 0.00 89 1009.0
20260506194809 61 28 4.0 13.0 0.00 0.00 0.00 89 1009.0
20260506194712 61 28 4.0 13.0 0.00 0.00 0.00 88 1009.1
20260506194636 61 33 4.0 13.0 0.00 0.00 0.00 88 1009.0
20260506194501 61 23 2.0 12.0 0.00 0.00 0.00 88 1009.1
20260506194405 61 51 2.0 12.0 0.00 0.00 0.00 87 1009.1
20260506194328 61 53 1.0 12.0 0.00 0.00 0.00 87 1009.1
20260506194211 61 42 4.0 12.0 0.00 0.00 0.00 87 1009.1
20260506194115 61 345 3.0 12.0 0.00 0.00 0.00 86 1009.1
20260506193957 61 47 3.0 12.0 0.00 0.00 0.00 86 1009.1
20260506193900 61 37 5.0 17.0 0.00 0.00 0.00 86 1009.1
20260506193828 61 333 5.0 17.0 0.00 0.00 0.00 86 1009.3
20260506193711 61 5 3.0 17.0 0.00 0.00 0.00 86 1009.1
20260506193615 61 49 3.0 17.0 0.00 0.00 0.00 85 1009.2
20260506193457 61 50 1.0 17.0 0.00 0.00 0.00 85 1009.2
20260506193420 61 37 1.0 17.0 0.00 0.00 0.00 85 1009.3
20260506193303 62 35 1.0 17.0 0.00 0.00 0.00 84 1009.3
20260506193206 62 42 3.0 17.0 0.00 0.00 0.00 84 1009.2
20260506193115 62 28 5.0 17.0 0.00 0.00 0.00 84 1009.2
20260506193016 62 10 1.0 12.0 0.00 0.00 0.00 84 1009.2
20260506192859 62 39 0.0 12.0 0.00 0.00 0.00 83 1009.3
20260506192802 62 38 1.0 12.0 0.00 0.00 0.00 83 1009.3
20260506192706 62 41 1.0 12.0 0.00 0.00 0.00 83 1009.2
20260506192610 62 41 1.0 12.0 0.00 0.00 0.00 83 1009.3
20260506192457 62 82 4.0 12.0 0.00 0.00 0.00 82 1009.2
20260506192400 62 348 6.0 12.0 0.00 0.00 0.00 82 1009.2
20260506192305 62 344 5.0 13.0 0.00 0.00 0.00 82 1009.2
20260506192206 62 321 4.0 13.0 0.00 0.00 0.00 81 1009.3
20260506192111 62 39 4.0 13.0 0.00 0.00 0.00 82 1009.2
20260506192012 62 93 3.0 13.0 0.00 0.00 0.00 82 1009.3
20260506191859 62 27 2.0 13.0 0.00 0.00 0.00 81 1009.3
20260506191823 63 54 3.0 13.0 0.00 0.00 0.00 81 1009.3
20260506191706 63 349 6.0 13.0 0.00 0.00 0.00 80 1009.3
20260506191610 63 330 6.0 13.0 0.00 0.00 0.00 80 1009.3
20260506191533 63 83 4.0 15.0 0.00 0.00 0.00 80 1009.3
20260506191355 63 360 3.0 12.0 0.00 0.00 0.00 80 1009.4
20260506191259 63 354 3.0 12.0 0.00 0.00 0.00 79 1009.4
20260506191206 63 29 3.0 12.0 0.00 0.00 0.00 79 1009.4
20260506191130 63 9 4.0 12.0 0.00 0.00 0.00 78 1009.4
20260506191012 64 62 5.0 15.0 0.00 0.00 0.00 77 1009.5
20260506190855 64 37 5.0 15.0 0.00 0.00 0.00 77 1009.4
20260506190758 64 355 5.0 15.0 0.00 0.00 0.00 77 1009.3
20260506190702 64 40 5.0 15.0 0.00 0.00 0.00 76 1009.4
20260506190610 64 49 3.0 15.0 0.00 0.00 0.00 76 1009.3
20260506190533 64 79 3.0 15.0 0.00 0.00 0.00 75 1009.4
20260506190355 64 18 4.0 15.0 0.00 0.00 0.00 75 1009.3
20260506190259 64 16 5.0 15.0 0.00 0.00 0.00 75 1009.4
20260506190223 64 58 5.0 15.0 0.00 0.00 0.00 75 1009.5
20260506190117 64 37 3.0 15.0 0.00 0.00 0.00 74 1009.3
20260506190022 65 44 7.0 15.0 0.00 0.00 0.00 74 1009.4
20260506185905 65 76 7.0 16.0 0.00 0.00 0.00 74 1009.5
20260506185812 65 345 5.0 15.0 0.00 0.00 0.00 74 1009.3
20260506185655 65 345 3.0 15.0 0.00 0.00 0.00 74 1009.4
20260506185559 65 34 3.0 15.0 0.00 0.00 0.00 74 1009.5
20260506185501 65 62 3.0 15.0 0.00 0.00 0.00 73 1009.5
20260506185405 65 76 4.0 15.0 0.00 0.00 0.00 73 1009.4
20260506185308 65 12 7.0 16.0 0.00 0.00 0.00 73 1009.3
20260506185155 65 73 5.0 17.0 0.00 0.00 0.00 73 1009.4
20260506185059 65 10 2.0 9.0 0.00 0.00 0.00 73 1009.3
20260506185022 65 89 2.0 9.0 0.00 0.00 0.00 73 1009.4
20260506184904 65 69 3.0 9.0 0.00 0.00 0.00 73 1009.3
20260506184828 65 33 3.0 9.0 0.00 0.00 0.00 73 1009.3
20260506184711 65 345 2.0 9.0 0.00 0.00 0.00 73 1009.2
20260506184636 65 331 2.0 13.0 0.00 0.00 0.00 73 1009.2
20260506184501 65 45 2.0 13.0 0.00 0.00 0.00 73 1009.3
20260506184426 65 34 2.0 13.0 0.00 0.00 0.00 73 1009.3
20260506184308 65 73 1.0 13.0 0.00 0.00 0.00 73 1009.3
20260506184212 65 62 2.0 13.0 0.00 0.00 0.00 73 1009.3
20260506184055 65 44 2.0 13.0 0.00 0.00 0.00 73 1009.4
20260506184018 65 10 3.0 13.0 0.00 0.00 0.00 73 1009.4
20260506183900 66 33 6.0 13.0 0.00 0.00 0.00 72 1009.4
20260506183808 66 29 4.0 14.0 0.00 0.00 0.00 72 1009.3
20260506183711 66 340 2.0 13.0 0.00 0.00 0.00 73 1009.4
20260506183556 66 18 4.0 13.0 0.00 0.00 0.00 72 1009.4
20260506183458 66 29 4.0 13.0 0.00 0.00 0.00 72 1009.4
20260506183402 66 1 3.0 10.0 0.00 0.00 0.00 72 1009.4
20260506183305 66 39 3.0 10.0 0.00 0.00 0.00 72 1009.5
20260506183213 66 7 2.0 12.0 0.00 0.00 0.00 72 1009.4
20260506183117 66 20 3.0 13.0 0.00 0.00 0.00 72 1009.4
20260506183018 66 15 4.0 13.0 0.00 0.00 0.00 72 1009.5
20260506182921 66 44 5.0 13.0 0.00 0.00 0.00 72 1009.5
20260506182804 66 1 4.0 13.0 0.00 0.00 0.00 72 1009.6
20260506182707 66 40 2.0 13.0 0.00 0.00 0.00 72 1009.6
20260506182612 66 115 2.0 13.0 0.00 0.00 0.00 72 1009.5
20260506182518 66 76 5.0 13.0 0.00 0.00 0.00 71 1009.6
20260506182401 66 64 7.0 13.0 0.00 0.00 0.00 71 1009.6
20260506182306 66 334 7.0 20.0 0.00 0.00 0.00 71 1009.6
20260506182208 66 28 5.0 20.0 0.00 0.00 0.00 71 1009.5
20260506182132 66 356 5.0 20.0 0.00 0.00 0.00 71 1009.6
20260506182013 66 333 5.0 20.0 0.00 0.00 0.00 71 1009.6
20260506181916 66 349 6.0 20.0 0.00 0.00 0.00 71 1009.6
20260506181803 66 71 6.0 20.0 0.00 0.00 0.00 71 1009.5
20260506181706 66 329 6.0 20.0 0.00 0.00 0.00 71 1009.5
20260506181610 66 342 8.0 20.0 0.00 0.00 0.00 70 1009.5
20260506181513 66 1 10.0 20.0 0.00 0.00 0.00 70 1009.5
20260506181356 66 349 10.0 22.0 0.00 0.00 0.00 70 1009.5
20260506181300 66 338 6.0 22.0 0.00 0.00 0.00 70 1009.4
20260506181207 66 8 4.0 22.0 0.00 0.00 0.00 70 1009.5
20260506181131 67 323 3.0 22.0 0.00 0.00 0.00 70 1009.6
20260506181033 67 337 4.0 22.0 0.00 0.00 0.00 70 1009.5
20260506180915 67 313 6.0 22.0 0.00 0.00 0.00 70 1009.6
20260506180757 67 25 8.0 22.0 0.00 0.00 0.00 69 1009.6
20260506180701 67 359 9.0 22.0 0.00 0.00 0.00 69 1009.5
20260506180605 67 340 11.0 24.0 0.00 0.00 0.00 69 1009.5
20260506180506 67 54 7.0 20.0 0.00 0.00 0.00 69 1009.5
20260506180414 67 18 4.0 22.0 0.00 0.00 0.00 69 1009.5
20260506180257 67 58 1.0 22.0 0.00 0.00 0.00 69 1009.6
20260506180221 67 22 5.0 22.0 0.00 0.00 0.00 69 1009.7
20260506180115 67 47 7.0 22.0 0.00 0.00 0.00 69 1009.6
20260506175959 67 356 7.0 22.0 0.00 0.00 0.00 68 1009.7
20260506175902 68 295 6.0 22.0 0.00 0.00 0.00 68 1009.7
20260506175810 68 1 4.0 22.0 0.00 0.00 0.00 68 1009.8
20260506175713 68 79 7.0 22.0 0.00 0.00 0.00 68 1009.8
20260506175556 68 64 8.0 24.0 0.00 0.00 0.00 68 1009.6
20260506175459 68 357 6.0 14.0 0.00 0.00 0.00 67 1009.8
20260506175403 68 16 8.0 14.0 0.00 0.00 0.00 67 1009.7
20260506175306 68 345 7.0 19.0 0.00 0.00 0.00 67 1009.8
20260506175213 68 22 5.0 19.0 0.00 0.00 0.00 67 1009.8
20260506175057 68 47 3.0 19.0 0.00 0.00 0.00 67 1009.9
20260506174959 68 50 2.0 19.0 0.00 0.00 0.00 68 1009.8
20260506174903 68 22 2.0 19.0 0.00 0.00 0.00 68 1009.8
20260506174806 68 39 1.0 19.0 0.00 0.00 0.00 68 1009.8
20260506174710 68 5 3.0 19.0 0.00 0.00 0.00 67 1009.9
20260506174557 68 34 7.0 19.0 0.00 0.00 0.00 67 1009.8
20260506174500 68 21 6.0 19.0 0.00 0.00 0.00 67 1009.8
20260506174403 69 355 6.0 14.0 0.00 0.00 0.00 66 1009.8
20260506174307 69 46 6.0 14.0 0.00 0.00 0.00 66 1009.7
20260506174210 69 321 5.0 16.0 0.00 0.00 0.00 66 1009.9
20260506174114 69 345 5.0 16.0 0.00 0.00 0.00 66 1009.9
20260506174000 69 3 6.0 16.0 0.00 0.00 0.00 66 1010.0
20260506173904 69 11 6.0 16.0 0.00 0.00 0.00 66 1010.0
20260506173807 69 52 5.0 16.0 0.00 0.00 0.00 66 1010.0
20260506173710 69 134 7.0 16.0 0.00 0.00 0.00 65 1010.0
20260506173614 69 37 6.0 16.0 0.00 0.00 0.00 65 1009.9
20260506173517 69 76 5.0 16.0 0.00 0.00 0.00 66 1009.9
20260506173403 69 348 4.0 16.0 0.00 0.00 0.00 66 1010.0
20260506173327 69 41 3.0 14.0 0.00 0.00 0.00 66 1010.1
20260506173210 69 18 5.0 14.0 0.00 0.00 0.00 66 1010.1
20260506173113 69 328 7.0 14.0 0.00 0.00 0.00 65 1010.1
20260506172955 69 30 5.0 17.0 0.00 0.00 0.00 66 1010.1
20260506172919 69 345 4.0 23.0 0.00 0.00 0.00 66 1010.0
20260506172822 69 12 6.0 23.0 0.00 0.00 0.00 65 1010.1
20260506172704 69 321 4.0 28.0 0.00 0.00 0.00 65 1010.1
20260506172612 69 354 2.0 28.0 0.00 0.00 0.00 66 1010.2
20260506172454 69 47 3.0 28.0 0.00 0.00 0.00 66 1010.1
20260506172358 69 316 2.0 28.0 0.00 0.00 0.00 66 1010.2
20260506172305 69 40 3.0 28.0 0.00 0.00 0.00 66 1010.1
20260506172225 69 45 7.0 28.0 0.00 0.00 0.00 65 1010.1
20260506172108 70 333 9.0 28.0 0.00 0.00 0.00 65 1010.1
20260506171954 70 60 7.0 28.0 0.00 0.00 0.00 65 1010.1
20260506171918 70 89 5.0 30.0 0.00 0.00 0.00 65 1009.9
20260506171801 70 322 6.0 13.0 0.00 0.00 0.00 65 1010.0
20260506171704 70 1 6.0 15.0 0.00 0.00 0.00 65 1010.0
20260506171607 70 6 6.0 16.0 0.00 0.00 0.00 65 1010.0
20260506171510 70 9 6.0 16.0 0.00 0.00 0.00 66 1010.0
20260506171356 70 14 4.0 16.0 0.00 0.00 0.00 65 1010.0
20260506171300 70 34 5.0 18.0 0.00 0.00 0.00 65 1009.9
20260506171203 70 13 5.0 18.0 0.00 0.00 0.00 65 1009.9
20260506171107 70 49 5.0 18.0 0.00 0.00 0.00 66 1009.9
20260506171029 70 16 6.0 18.0 0.00 0.00 0.00 65 1009.9
20260506170912 70 62 7.0 18.0 0.00 0.00 0.00 65 1009.9
20260506170755 70 359 8.0 18.0 0.00 0.00 0.00 65 1009.8
20260506170703 70 349 8.0 18.0 0.00 0.00 0.00 65 1009.9
20260506170608 70 40 6.0 18.0 0.00 0.00 0.00 65 1009.9
20260506170510 70 57 8.0 18.0 0.00 0.00 0.00 65 1009.8
20260506170413 70 340 8.0 18.0 0.00 0.00 0.00 65 1009.9
20260506170257 70 56 4.0 17.0 0.00 0.00 0.00 65 1009.8
20260506170200 70 336 6.0 17.0 0.00 0.00 0.00 65 1009.9
20260506170119 70 75 7.0 17.0 0.00 0.00 0.00 65 1009.8
20260506170024 70 23 5.0 14.0 0.00 0.00 0.00 65 1009.9
20260506165926 70 360 6.0 14.0 0.00 0.00 0.00 66 1010.0
20260506165809 70 314 3.0 19.0 0.00 0.00 0.00 66 1010.0
20260506165733 70 44 1.0 19.0 0.00 0.00 0.00 67 1010.0
20260506165555 70 40 3.0 19.0 0.00 0.00 0.00 67 1010.0
20260506165457 69 16 4.0 19.0 0.00 0.00 0.00 66 1010.0
20260506165405 69 33 4.0 19.0 0.00 0.00 0.00 66 1010.0
20260506165309 69 84 4.0 19.0 0.00 0.00 0.00 67 1010.0
20260506165212 69 40 5.0 19.0 0.00 0.00 0.00 66 1010.1
20260506165057 69 13 7.0 19.0 0.00 0.00 0.00 66 1010.0
20260506164959 69 52 5.0 19.0 0.00 0.00 0.00 66 1010.1
20260506164902 69 27 5.0 19.0 0.00 0.00 0.00 67 1010.1
20260506164825 69 60 5.0 19.0 0.00 0.00 0.00 67 1010.2
20260506164732 69 18 8.0 19.0 0.00 0.00 0.00 67 1010.1
20260506164556 69 356 8.0 19.0 0.00 0.00 0.00 67 1010.1
20260506164458 69 18 4.0 21.0 0.00 0.00 0.00 67 1010.2
20260506164401 69 342 5.0 21.0 0.00 0.00 0.00 68 1010.3
20260506164305 69 50 4.0 21.0 0.00 0.00 0.00 67 1010.2
20260506164208 69 336 3.0 21.0 0.00 0.00 0.00 68 1010.4
20260506164056 69 34 4.0 21.0 0.00 0.00 0.00 67 1010.4
20260506163958 69 312 8.0 21.0 0.00 0.00 0.00 67 1010.4
20260506163902 69 329 9.0 21.0 0.00 0.00 0.00 66 1010.4
20260506163805 69 337 8.0 21.0 0.00 0.00 0.00 67 1010.3
20260506163709 69 349 8.0 22.0 0.00 0.00 0.00 67 1010.4
20260506163612 69 356 7.0 16.0 0.00 0.00 0.00 67 1010.4
20260506163459 69 345 6.0 16.0 0.00 0.00 0.00 66 1010.4
20260506163402 69 353 6.0 15.0 0.00 0.00 0.00 66 1010.4
20260506163326 69 329 8.0 14.0 0.00 0.00 0.00 67 1010.4
20260506163208 70 336 5.0 14.0 0.00 0.00 0.00 67 1010.4
20260506163112 69 23 2.0 15.0 0.00 0.00 0.00 67 1010.5
20260506162954 69 336 1.0 21.0 0.00 0.00 0.00 67 1010.5
20260506162918 69 43 2.0 21.0 0.00 0.00 0.00 68 1010.5
20260506162804 69 34 3.0 21.0 0.00 0.00 0.00 67 1010.5
20260506162708 69 39 2.0 21.0 0.00 0.00 0.00 67 1010.6
20260506162612 69 74 3.0 21.0 0.00 0.00 0.00 67 1010.5
20260506162515 69 81 6.0 21.0 0.00 0.00 0.00 67 1010.6
20260506162358 69 20 7.0 21.0 0.00 0.00 0.00 67 1010.6
20260506162301 69 341 7.0 21.0 0.00 0.00 0.00 66 1010.5
20260506162209 69 330 5.0 21.0 0.00 0.00 0.00 67 1010.6
20260506162112 69 82 2.0 15.0 0.00 0.00 0.00 68 1010.6
20260506161954 69 34 3.0 15.0 0.00 0.00 0.00 68 1010.6
20260506161858 69 20 4.0 16.0 0.00 0.00 0.00 68 1010.6
20260506161801 69 19 3.0 16.0 0.00 0.00 0.00 68 1010.6
20260506161705 68 350 3.0 16.0 0.00 0.00 0.00 69 1010.5
20260506161613 68 1 5.0 16.0 0.00 0.00 0.00 68 1010.5
20260506161456 68 33 4.0 16.0 0.00 0.00 0.00 68 1010.6
20260506161419 68 32 4.0 16.0 0.00 0.00 0.00 68 1010.6
20260506161302 68 333 6.0 16.0 0.00 0.00 0.00 68 1010.7
20260506161205 68 49 10.0 16.0 0.00 0.00 0.00 68 1010.7
20260506161110 69 22 9.0 16.0 0.00 0.00 0.00 68 1010.7
20260506160957 69 40 5.0 15.0 0.00 0.00 0.00 68 1010.7
20260506160900 69 81 5.0 15.0 0.00 0.00 0.00 68 1010.7
20260506160802 69 350 4.0 19.0 0.00 0.00 0.00 68 1010.7
20260506160706 69 316 2.0 19.0 0.00 0.00 0.00 69 1010.7
20260506160631 69 50 5.0 19.0 0.00 0.00 0.00 68 1010.7
20260506160512 69 42 7.0 19.0 0.00 0.00 0.00 68 1010.6
20260506160355 69 354 5.0 19.0 0.00 0.00 0.00 68 1010.8
20260506160303 69 69 4.0 19.0 0.00 0.00 0.00 67 1010.7
20260506160206 69 66 6.0 19.0 0.00 0.00 0.00 68 1010.8
20260506160122 69 353 9.0 19.0 0.00 0.00 0.00 67 1010.8
20260506160006 69 14 10.0 19.0 0.00 0.00 0.00 67 1010.8
20260506155910 69 13 7.0 19.0 0.00 0.00 0.00 67 1010.8
20260506155813 69 13 3.0 14.0 0.00 0.00 0.00 67 1010.9
20260506155700 69 335 4.0 14.0 0.00 0.00 0.00 67 1010.8
20260506155605 69 1 5.0 14.0 0.00 0.00 0.00 67 1010.9
20260506155507 69 330 5.0 17.0 0.00 0.00 0.00 67 1010.9
20260506155411 69 47 6.0 17.0 0.00 0.00 0.00 68 1010.8
20260506155254 69 336 6.0 17.0 0.00 0.00 0.00 67 1010.9
20260506155158 69 30 6.0 17.0 0.00 0.00 0.00 67 1010.9
20260506155105 69 23 6.0 17.0 0.00 0.00 0.00 67 1010.9
20260506155007 69 44 7.0 17.0 0.00 0.00 0.00 67 1011.0
20260506154910 69 328 7.0 17.0 0.00 0.00 0.00 67 1011.0
20260506154813 69 343 8.0 17.0 0.00 0.00 0.00 67 1011.0
20260506154657 69 15 6.0 17.0 0.00 0.00 0.00 68 1010.9
20260506154600 69 47 3.0 13.0 0.00 0.00 0.00 67 1011.0
20260506154507 69 33 2.0 13.0 0.00 0.00 0.00 68 1011.0
20260506154411 69 33 2.0 13.0 0.00 0.00 0.00 68 1011.0
20260506154314 69 49 6.0 13.0 0.00 0.00 0.00 67 1011.1
20260506154217 69 18 6.0 13.0 0.00 0.00 0.00 67 1011.0
20260506154120 69 72 4.0 13.0 0.00 0.00 0.00 67 1011.1
20260506154002 69 51 3.0 13.0 0.00 0.00 0.00 67 1011.2
20260506153905 69 335 4.0 13.0 0.00 0.00 0.00 67 1011.1
20260506153813 69 345 6.0 14.0 0.00 0.00 0.00 66 1011.1
20260506153717 69 323 6.0 14.0 0.00 0.00 0.00 66 1011.1
20260506153619 69 214 3.0 14.0 0.00 0.00 0.00 67 1011.2
20260506153501 69 53 4.0 14.0 0.00 0.00 0.00 66 1011.2
20260506153404 69 58 5.0 14.0 0.00 0.00 0.00 66 1011.2
20260506153328 69 345 5.0 14.0 0.00 0.00 0.00 66 1011.2
20260506153210 69 284 4.0 14.0 0.00 0.00 0.00 67 1011.1
20260506153058 69 321 5.0 16.0 0.00 0.00 0.00 68 1011.2
20260506153000 69 350 7.0 16.0 0.00 0.00 0.00 67 1011.2
20260506152904 69 352 5.0 16.0 0.00 0.00 0.00 67 1011.2
20260506152828 69 355 5.0 16.0 0.00 0.00 0.00 67 1011.3
20260506152710 69 356 6.0 17.0 0.00 0.00 0.00 67 1011.3
20260506152615 69 345 7.0 17.0 0.00 0.00 0.00 67 1011.4
20260506152501 69 39 7.0 17.0 0.00 0.00 0.00 67 1011.4
20260506152404 69 76 6.0 17.0 0.00 0.00 0.00 68 1011.3
20260506152308 69 321 4.0 17.0 0.00 0.00 0.00 68 1011.4
20260506152211 69 74 3.0 17.0 0.00 0.00 0.00 68 1011.4
20260506152056 68 9 6.0 17.0 0.00 0.00 0.00 68 1011.3
20260506151958 68 33 7.0 17.0 0.00 0.00 0.00 68 1011.3
20260506151922 68 106 7.0 17.0 0.00 0.00 0.00 68 1011.3
20260506151828 68 40 7.0 16.0 0.00 0.00 0.00 68 1011.3
20260506151711 68 319 6.0 16.0 0.00 0.00 0.00 68 1011.3
20260506151614 68 333 5.0 13.0 0.00 0.00 0.00 68 1011.4
20260506151456 68 357 7.0 14.0 0.00 0.00 0.00 68 1011.4
20260506151400 68 100 6.0 14.0 0.00 0.00 0.00 68 1011.5
20260506151303 68 15 5.0 14.0 0.00 0.00 0.00 68 1011.5
20260506151211 68 68 6.0 14.0 0.00 0.00 0.00 68 1011.4
20260506151136 68 51 7.0 14.0 0.00 0.00 0.00 68 1011.4
20260506150957 68 81 5.0 14.0 0.00 0.00 0.00 69 1011.5
20260506150900 68 30 4.0 14.0 0.00 0.00 0.00 69 1011.6
20260506150804 68 72 6.0 14.0 0.00 0.00 0.00 68 1011.5
20260506150707 68 11 7.0 14.0 0.00 0.00 0.00 68 1011.5
20260506150555 68 323 6.0 13.0 0.00 0.00 0.00 68 1011.4
20260506150457 68 293 6.0 14.0 0.00 0.00 0.00 68 1011.5
20260506150401 68 22 3.0 18.0 0.00 0.00 0.00 68 1011.6
20260506150305 68 1 4.0 18.0 0.00 0.00 0.00 69 1011.6
20260506150208 68 45 4.0 18.0 0.00 0.00 0.00 68 1011.5
20260506150123 68 16 5.0 18.0 0.00 0.00 0.00 69 1011.6
20260506150008 68 63 5.0 18.0 0.00 0.00 0.00 68 1011.5
20260506145855 68 23 3.0 18.0 0.00 0.00 0.00 68 1011.4
20260506145759 68 65 3.0 18.0 0.00 0.00 0.00 68 1011.4
20260506145702 68 15 5.0 18.0 0.00 0.00 0.00 69 1011.6
20260506145626 68 19 6.0 18.0 0.00 0.00 0.00 68 1011.4
20260506145507 68 5 8.0 19.0 0.00 0.00 0.00 68 1011.5
20260506145411 68 96 9.0 17.0 0.00 0.00 0.00 68 1011.4
20260506145258 68 66 6.0 12.0 0.00 0.00 0.00 68 1011.5
20260506145202 68 19 4.0 19.0 0.00 0.00 0.00 68 1011.5
20260506145105 68 37 4.0 19.0 0.00 0.00 0.00 68 1011.5
20260506145008 68 53 4.0 19.0 0.00 0.00 0.00 69 1011.5
20260506144931 68 316 5.0 19.0 0.00 0.00 0.00 68 1011.6
20260506144813 68 80 6.0 19.0 0.00 0.00 0.00 69 1011.5
20260506144717 68 328 7.0 19.0 0.00 0.00 0.00 68 1011.3
20260506144604 68 349 5.0 19.0 0.00 0.00 0.00 68 1011.4
20260506144507 68 330 5.0 19.0 0.00 0.00 0.00 69 1011.3
20260506144410 68 73 8.0 19.0 0.00 0.00 0.00 68 1011.4
20260506144314 68 54 7.0 20.0 0.00 0.00 0.00 68 1011.4
20260506144157 68 64 6.0 20.0 0.00 0.00 0.00 68 1011.3
20260506144100 68 359 5.0 20.0 0.00 0.00 0.00 68 1011.3
20260506144007 68 338 4.0 20.0 0.00 0.00 0.00 68 1011.3
20260506143930 68 26 3.0 20.0 0.00 0.00 0.00 68 1011.3
20260506143833 68 6 4.0 20.0 0.00 0.00 0.00 69 1011.3
20260506143656 68 171 7.0 20.0 0.00 0.00 0.00 68 1011.3
20260506143559 68 8 8.0 20.0 0.00 0.00 0.00 68 1011.4
20260506143522 68 352 5.0 22.0 0.00 0.00 0.00 68 1011.3
20260506143404 68 18 1.0 14.0 0.00 0.00 0.00 69 1011.4
20260506143311 68 79 4.0 14.0 0.00 0.00 0.00 68 1011.3
20260506143154 68 25 6.0 14.0 0.00 0.00 0.00 68 1011.1
20260506143059 68 345 3.0 14.0 0.00 0.00 0.00 69 1011.3
20260506143001 68 360 0.0 11.0 0.00 0.00 0.00 69 1011.2
20260506142905 68 47 1.0 11.0 0.00 0.00 0.00 69 1011.2
20260506142808 68 25 1.0 17.0 0.00 0.00 0.00 69 1011.2
20260506142716 68 56 3.0 17.0 0.00 0.00 0.00 69 1011.2
20260506142559 68 6 3.0 17.0 0.00 0.00 0.00 69 1011.1
20260506142501 68 347 4.0 17.0 0.00 0.00 0.00 70 1011.2
20260506142405 68 345 5.0 17.0 0.00 0.00 0.00 69 1011.1
20260506142308 68 51 4.0 17.0 0.00 0.00 0.00 69 1011.2
20260506142212 68 49 2.0 17.0 0.00 0.00 0.00 69 1011.2
20260506142059 68 25 5.0 17.0 0.00 0.00 0.00 70 1011.3
20260506142001 68 22 6.0 18.0 0.00 0.00 0.00 69 1011.1
20260506141905 68 23 3.0 18.0 0.00 0.00 0.00 70 1011.3
20260506141808 67 336 4.0 18.0 0.00 0.00 0.00 70 1011.3
20260506141712 67 41 4.0 19.0 0.00 0.00 0.00 70 1011.3
20260506141555 67 65 6.0 19.0 0.00 0.00 0.00 70 1011.3
20260506141502 67 89 6.0 19.0 0.00 0.00 0.00 70 1011.4
20260506141425 67 321 6.0 19.0 0.00 0.00 0.00 70 1011.5
20260506141308 67 41 8.0 19.0 0.00 0.00 0.00 70 1011.3
20260506141211 67 21 6.0 19.0 0.00 0.00 0.00 70 1011.5
20260506141135 67 295 5.0 19.0 0.00 0.00 0.00 70 1011.3
20260506140957 67 58 8.0 19.0 0.00 0.00 0.00 70 1011.4
20260506140920 67 33 7.0 17.0 0.00 0.00 0.00 70 1011.3
20260506140823 67 347 6.0 16.0 0.00 0.00 0.00 71 1011.4
20260506140710 67 28 3.0 16.0 0.00 0.00 0.00 71 1011.3
20260506140635 67 13 2.0 16.0 0.00 0.00 0.00 72 1011.2
20260506140456 67 6 5.0 16.0 0.00 0.00 0.00 72 1011.2
20260506140359 67 62 6.0 16.0 0.00 0.00 0.00 72 1011.2
20260506140303 67 33 5.0 16.0 0.00 0.00 0.00 72 1011.2
20260506140227 67 29 7.0 15.0 0.00 0.00 0.00 72 1011.3
20260506140120 67 36 8.0 15.0 0.00 0.00 0.00 71 1011.3
20260506140009 67 350 6.0 16.0 0.00 0.00 0.00 72 1011.5
20260506135912 67 355 4.0 14.0 0.00 0.00 0.00 72 1011.1
20260506135755 67 90 3.0 14.0 0.00 0.00 0.00 72 1011.3
20260506135659 67 333 4.0 14.0 0.00 0.00 0.00 72 1011.3
20260506135603 67 35 4.0 14.0 0.00 0.00 0.00 72 1011.3
20260506135506 67 349 3.0 14.0 0.00 0.00 0.00 73 1011.3
20260506135413 66 48 3.0 14.0 0.00 0.00 0.00 72 1011.3
20260506135257 66 338 7.0 14.0 0.00 0.00 0.00 72 1011.3
20260506135200 66 32 7.0 14.0 0.00 0.00 0.00 72 1011.2
20260506135104 66 354 6.0 15.0 0.00 0.00 0.00 72 1011.1
20260506135006 66 326 6.0 12.0 0.00 0.00 0.00 73 1011.2
20260506134910 66 356 8.0 12.0 0.00 0.00 0.00 72 1011.2
20260506134757 66 34 4.0 13.0 0.00 0.00 0.00 73 1011.3
20260506134701 66 47 2.0 12.0 0.00 0.00 0.00 73 1011.3
20260506134605 66 44 2.0 13.0 0.00 0.00 0.00 74 1011.3
20260506134507 66 36 5.0 13.0 0.00 0.00 0.00 73 1011.3
20260506134430 66 352 5.0 13.0 0.00 0.00 0.00 73 1011.3
20260506134313 66 49 4.0 13.0 0.00 0.00 0.00 73 1011.4
20260506134216 66 39 4.0 13.0 0.00 0.00 0.00 74 1011.4
20260506134123 66 33 5.0 13.0 0.00 0.00 0.00 73 1011.4
20260506134005 66 318 5.0 13.0 0.00 0.00 0.00 73 1011.4
20260506133908 66 20 7.0 13.0 0.00 0.00 0.00 73 1011.5
20260506133812 66 18 7.0 13.0 0.00 0.00 0.00 73 1011.6
20260506133655 66 45 3.0 13.0 0.00 0.00 0.00 73 1011.7
20260506133600 66 47 2.0 13.0 0.00 0.00 0.00 73 1011.7
20260506133507 66 356 4.0 13.0 0.00 0.00 0.00 73 1011.8
20260506133430 66 5 6.0 13.0 0.00 0.00 0.00 73 1011.9
20260506133313 66 16 6.0 13.0 0.00 0.00 0.00 73 1011.9
20260506133156 66 53 2.0 12.0 0.00 0.00 0.00 73 1011.9
20260506133059 66 349 3.0 12.0 0.00 0.00 0.00 74 1011.9
20260506133002 66 44 3.0 12.0 0.00 0.00 0.00 73 1012.0
20260506132906 66 6 3.0 12.0 0.00 0.00 0.00 74 1011.9
20260506132813 66 64 4.0 17.0 0.00 0.00 0.00 73 1012.0
20260506132656 66 349 3.0 17.0 0.00 0.00 0.00 74 1011.9
20260506132601 66 58 5.0 17.0 0.00 0.00 0.00 75 1011.9
20260506132503 66 321 6.0 17.0 0.00 0.00 0.00 75 1012.0
20260506132407 66 61 4.0 17.0 0.00 0.00 0.00 75 1011.9
20260506132254 66 40 1.0 17.0 0.00 0.00 0.00 76 1011.9
20260506132158 65 29 2.0 17.0 0.00 0.00 0.00 76 1011.9
20260506132121 65 49 5.0 17.0 0.00 0.00 0.00 76 1011.9
20260506132003 65 42 8.0 17.0 0.00 0.00 0.00 76 1011.9
20260506131906 65 348 4.0 14.0 0.00 0.00 0.00 76 1011.9
20260506131830 65 12 3.0 14.0 0.00 0.00 0.00 77 1012.0
20260506131713 65 29 4.0 14.0 0.00 0.00 0.00 77 1012.1
20260506131600 64 345 3.0 14.0 0.00 0.00 0.00 78 1012.0
20260506131503 64 27 4.0 14.0 0.00 0.00 0.00 77 1012.0
20260506131406 64 346 6.0 14.0 0.00 0.00 0.00 77 1012.0
20260506131310 64 36 7.0 14.0 0.00 0.00 0.00 77 1012.1
20260506131213 64 8 8.0 14.0 0.00 0.00 0.00 77 1012.0
20260506131056 64 37 7.0 14.0 0.00 0.00 0.00 77 1012.0
20260506131003 64 40 5.0 14.0 0.00 0.00 0.00 77 1012.0
20260506130907 64 6 6.0 14.0 0.00 0.00 0.00 77 1011.9
20260506130810 64 30 6.0 14.0 0.00 0.00 0.00 78 1011.9
20260506130714 64 358 5.0 14.0 0.00 0.00 0.00 78 1012.0
20260506130557 64 58 6.0 11.0 0.00 0.00 0.00 77 1012.0
20260506130500 64 27 5.0 11.0 0.00 0.00 0.00 78 1011.9
20260506130407 64 359 3.0 9.0 0.00 0.00 0.00 78 1011.9
20260506130331 64 15 4.0 9.0 0.00 0.00 0.00 78 1011.9
20260506130213 64 67 4.0 14.0 0.00 0.00 0.00 79 1011.9
20260506130127 64 20 3.0 14.0 0.00 0.00 0.00 79 1011.9
20260506130012 64 29 3.0 14.0 0.00 0.00 0.00 80 1011.9
20260506125856 63 25 2.0 14.0 0.00 0.00 0.00 80 1012.0
20260506125759 63 55 1.0 14.0 0.00 0.00 0.00 80 1012.0
20260506125707 63 75 2.0 14.0 0.00 0.00 0.00 80 1012.0
20260506125611 63 19 5.0 14.0 0.00 0.00 0.00 80 1012.0
20260506125514 63 57 6.0 14.0 0.00 0.00 0.00 80 1012.0
20260506125357 63 333 7.0 14.0 0.00 0.00 0.00 80 1012.0
20260506125320 63 93 7.0 14.0 0.00 0.00 0.00 80 1012.0
20260506125223 63 349 4.0 11.0 0.00 0.00 0.00 81 1012.0
20260506125106 62 39 4.0 16.0 0.00 0.00 0.00 81 1012.0
20260506125013 62 16 5.0 16.0 0.00 0.00 0.00 81 1012.1
20260506124916 62 23 6.0 16.0 0.00 0.00 0.00 81 1012.0
20260506124759 62 11 5.0 16.0 0.00 0.00 0.00 82 1012.0
20260506124702 62 13 3.0 16.0 0.00 0.00 0.00 82 1012.0
20260506124606 62 38 1.0 16.0 0.00 0.00 0.00 82 1012.0
20260506124508 62 47 1.0 16.0 0.00 0.00 0.00 82 1012.0
20260506124356 62 45 5.0 16.0 0.00 0.00 0.00 82 1012.0
20260506124259 62 23 4.0 17.0 0.00 0.00 0.00 82 1012.1
20260506124223 62 45 4.0 12.0 0.00 0.00 0.00 83 1012.1
20260506124106 62 348 5.0 12.0 0.00 0.00 0.00 82 1012.2
20260506124009 62 35 2.0 9.0 0.00 0.00 0.00 83 1012.2
20260506123912 62 345 1.0 9.0 0.00 0.00 0.00 83 1012.2
20260506123817 61 55 0.0 10.0 0.00 0.00 0.00 83 1012.1
20260506123703 61 56 2.0 11.0 0.00 0.00 0.00 83 1012.1
20260506123607 61 359 3.0 11.0 0.00 0.00 0.00 83 1012.1
20260506123509 61 42 2.0 11.0 0.00 0.00 0.00 83 1012.2
20260506123433 61 65 3.0 11.0 0.00 0.00 0.00 83 1012.1
20260506123256 61 14 3.0 12.0 0.00 0.00 0.00 83 1012.1
20260506123159 61 49 4.0 12.0 0.00 0.00 0.00 83 1012.2
20260506123123 61 30 4.0 12.0 0.00 0.00 0.00 83 1012.1
20260506123008 61 39 4.0 14.0 0.00 0.00 0.00 84 1012.1
20260506122932 61 13 6.0 14.0 0.00 0.00 0.00 84 1012.1
20260506122754 61 347 6.0 14.0 0.00 0.00 0.00 84 1012.1
20260506122718 61 25 4.0 14.0 0.00 0.00 0.00 84 1012.2
20260506122602 61 33 5.0 14.0 0.00 0.00 0.00 84 1012.1
20260506122504 61 67 6.0 14.0 0.00 0.00 0.00 84 1012.1
20260506122428 61 12 3.0 15.0 0.00 0.00 0.00 84 1012.0
20260506122331 61 49 5.0 15.0 0.00 0.00 0.00 84 1012.0
20260506122217 61 9 7.0 15.0 0.00 0.00 0.00 84 1012.1
20260506122100 61 1 3.0 15.0 0.00 0.00 0.00 85 1012.0
20260506122002 61 59 3.0 16.0 0.00 0.00 0.00 85 1012.0
20260506121906 61 75 5.0 16.0 0.00 0.00 0.00 85 1011.9
20260506121809 61 8 4.0 16.0 0.00 0.00 0.00 85 1011.9
20260506121712 61 13 6.0 16.0 0.00 0.00 0.00 85 1011.8
20260506121600 61 25 8.0 16.0 0.00 0.00 0.00 85 1011.8
20260506121523 61 40 7.0 16.0 0.00 0.00 0.00 85 1011.9
20260506121405 60 59 7.0 16.0 0.00 0.00 0.00 85 1011.9
20260506121309 60 20 8.0 16.0 0.00 0.00 0.00 85 1011.9
20260506121212 60 5 7.0 16.0 0.00 0.00 0.00 85 1011.8
20260506121056 60 343 3.0 13.0 0.00 0.00 0.00 86 1011.9
20260506121002 60 42 6.0 13.0 0.00 0.00 0.00 86 1011.9
20260506120905 60 339 7.0 13.0 0.00 0.00 0.00 86 1011.9
20260506120808 60 349 5.0 13.0 0.00 0.00 0.00 86 1012.0
20260506120712 60 1 3.0 13.0 0.00 0.00 0.00 87 1012.1
20260506120556 60 19 3.0 13.0 0.00 0.00 0.00 87 1012.1
20260506120459 60 8 5.0 13.0 0.00 0.00 0.00 87 1012.2
20260506120406 60 32 6.0 13.0 0.00 0.00 0.00 87 1012.2
20260506120310 60 359 3.0 13.0 0.00 0.00 0.00 88 1012.3
20260506120213 59 10 2.0 10.0 0.00 0.00 0.00 88 1012.3
20260506120128 59 25 2.0 10.0 0.00 0.00 0.00 89 1012.3
20260506120012 59 35 0.0 12.0 0.00 0.00 0.00 89 1012.3
20260506115916 59 56 1.0 12.0 0.00 0.00 0.00 88 1012.3
20260506115758 59 56 3.0 14.0 0.00 0.00 0.00 88 1012.3
20260506115706 59 13 5.0 14.0 0.00 0.00 0.00 88 1012.3
20260506115609 59 50 4.0 14.0 0.00 0.00 0.00 88 1012.2
20260506115532 59 343 3.0 14.0 0.00 0.00 0.00 88 1012.3
20260506115354 59 15 5.0 14.0 0.00 0.00 0.00 88 1012.4
20260506115258 59 359 6.0 14.0 0.00 0.00 0.00 88 1012.3
20260506115201 59 30 4.0 14.0 0.00 0.00 0.00 88 1012.3
20260506115125 59 13 5.0 14.0 0.00 0.00 0.00 88 1012.4
20260506115011 59 37 6.0 14.0 0.00 0.00 0.00 88 1012.4
20260506114854 59 11 4.0 11.0 0.00 0.00 0.00 88 1012.4
20260506114757 59 57 4.0 11.0 0.00 0.00 0.00 88 1012.4
20260506114701 59 359 4.0 17.0 0.00 0.00 0.00 88 1012.5
20260506114604 59 89 6.0 17.0 0.00 0.00 0.00 88 1012.4
20260506114508 59 352 4.0 17.0 0.00 0.00 0.00 88 1012.4
20260506114354 59 28 1.0 17.0 0.00 0.00 0.00 88 1012.5
20260506114258 59 33 2.0 17.0 0.00 0.00 0.00 88 1012.4
20260506114201 59 25 4.0 17.0 0.00 0.00 0.00 88 1012.4
20260506114106 59 21 6.0 17.0 0.00 0.00 0.00 88 1012.4
20260506114029 59 8 8.0 17.0 0.00 0.00 0.00 88 1012.4
20260506113931 59 355 5.0 18.0 0.00 0.00 0.00 88 1012.5
20260506113758 59 50 2.0 11.0 0.00 0.00 0.00 88 1012.5
20260506113721 59 23 4.0 11.0 0.00 0.00 0.00 88 1012.5
20260506113604 59 336 3.0 11.0 0.00 0.00 0.00 88 1012.5
20260506113507 59 32 1.0 10.0 0.00 0.00 0.00 89 1012.5
20260506113430 59 12 2.0 10.0 0.00 0.00 0.00 89 1012.5
20260506113312 59 41 2.0 11.0 0.00 0.00 0.00 89 1012.5
20260506113155 59 16 3.0 12.0 0.00 0.00 0.00 89 1012.6
20260506113104 59 70 2.0 12.0 0.00 0.00 0.00 89 1012.5
20260506113006 59 319 1.0 12.0 0.00 0.00 0.00 89 1012.5
20260506112910 59 55 3.0 12.0 0.00 0.00 0.00 89 1012.5
20260506112813 59 15 4.0 12.0 0.00 0.00 0.00 89 1012.6
20260506112657 59 6 3.0 12.0 0.00 0.00 0.00 89 1012.5
20260506112600 59 34 5.0 12.0 0.00 0.00 0.00 89 1012.5
20260506112507 59 25 7.0 12.0 0.00 0.00 0.00 89 1012.5
20260506112410 59 41 7.0 12.0 0.00 0.00 0.00 89 1012.5
20260506112315 59 19 6.0 12.0 0.00 0.00 0.00 89 1012.5
20260506112157 59 16 4.0 12.0 0.00 0.00 0.00 89 1012.5
20260506112102 58 41 3.0 12.0 0.00 0.00 0.00 89 1012.4
20260506112004 58 345 3.0 12.0 0.00 0.00 0.00 90 1012.5
20260506111908 58 39 3.0 12.0 0.00 0.00 0.00 90 1012.5
20260506111755 58 5 1.0 12.0 0.00 0.00 0.00 90 1012.5
20260506111658 58 47 1.0 12.0 0.00 0.00 0.00 90 1012.4
20260506111623 58 51 2.0 12.0 0.00 0.00 0.00 90 1012.3
20260506111504 58 350 4.0 12.0 0.00 0.00 0.00 90 1012.4
20260506111407 58 49 3.0 12.0 0.00 0.00 0.00 91 1012.4
20260506111332 58 18 2.0 10.0 0.00 0.00 0.00 91 1012.4
20260506111157 58 123 3.0 7.0 0.00 0.00 0.00 91 1012.4
20260506111102 58 20 3.0 7.0 0.00 0.00 0.00 91 1012.3
20260506111004 57 353 2.0 7.0 0.00 0.00 0.00 91 1012.3
20260506110907 57 317 3.0 7.0 0.00 0.00 0.00 91 1012.3
20260506110831 57 16 4.0 7.0 0.00 0.00 0.00 91 1012.3
20260506110734 57 40 2.0 8.0 0.00 0.00 0.00 91 1012.4
20260506110617 57 49 2.0 7.0 0.00 0.00 0.00 91 1012.3
20260506110519 57 341 2.0 9.0 0.00 0.00 0.00 91 1012.3
20260506110405 57 40 1.0 9.0 0.00 0.00 0.00 91 1012.4
20260506110309 57 44 1.0 9.0 0.00 0.00 0.00 91 1012.4
20260506110212 57 51 1.0 9.0 0.00 0.00 0.00 91 1012.4
20260506110126 57 46 1.0 9.0 0.00 0.00 0.00 91 1012.3
20260506110011 57 28 2.0 9.0 0.00 0.00 0.00 91 1012.4
20260506105855 57 13 1.0 9.0 0.00 0.00 0.00 91 1012.4
20260506105819 57 13 2.0 9.0 0.00 0.00 0.00 91 1012.4
20260506105705 57 23 3.0 9.0 0.00 0.00 0.00 91 1012.4
20260506105610 57 345 3.0 10.0 0.00 0.00 0.00 91 1012.3
20260506105512 57 47 1.0 7.0 0.00 0.00 0.00 91 1012.3
20260506105355 57 41 2.0 11.0 0.00 0.00 0.00 91 1012.4
20260506105259 57 44 2.0 11.0 0.00 0.00 0.00 91 1012.4
20260506105223 57 74 1.0 11.0 0.00 0.00 0.00 91 1012.4
20260506105109 57 11 3.0 11.0 0.00 0.00 0.00 91 1012.3
20260506105012 57 351 2.0 11.0 0.00 0.00 0.00 91 1012.4
20260506104855 57 22 1.0 11.0 0.00 0.00 0.00 91 1012.4
20260506104758 57 58 0.0 11.0 0.00 0.00 0.00 91 1012.4
20260506104723 57 34 1.0 11.0 0.00 0.00 0.00 91 1012.4
20260506104627 57 29 3.0 11.0 0.00 0.00 0.00 91 1012.4
20260506104509 57 349 3.0 12.0 0.00 0.00 0.00 91 1012.4
20260506104356 57 108 2.0 8.0 0.00 0.00 0.00 91 1012.4
20260506104259 57 360 1.0 9.0 0.00 0.00 0.00 91 1012.4
20260506104203 57 35 2.0 9.0 0.00 0.00 0.00 91 1012.4
20260506104107 57 18 1.0 9.0 0.00 0.00 0.00 91 1012.5
20260506104009 57 15 1.0 9.0 0.00 0.00 0.00 91 1012.5
20260506103913 57 15 1.0 9.0 0.00 0.00 0.00 91 1012.4
20260506103800 57 59 1.0 9.0 0.00 0.00 0.00 91 1012.5
20260506103703 57 16 3.0 9.0 0.00 0.00 0.00 91 1012.5
20260506103628 57 356 3.0 9.0 0.00 0.00 0.00 91 1012.5
20260506103509 57 58 3.0 9.0 0.00 0.00 0.00 91 1012.4
20260506103412 57 360 2.0 8.0 0.00 0.00 0.00 91 1012.4
20260506103256 57 352 4.0 8.0 0.00 0.00 0.00 91 1012.4
20260506103203 57 340 3.0 8.0 0.00 0.00 0.00 91 1012.5
20260506103107 57 40 1.0 8.0 0.00 0.00 0.00 90 1012.4
20260506103029 57 39 1.0 8.0 0.00 0.00 0.00 90 1012.4
20260506102912 57 40 2.0 8.0 0.00 0.00 0.00 90 1012.3
20260506102815 57 72 1.0 9.0 0.00 0.00 0.00 90 1012.3
20260506102718 57 47 0.0 7.0 0.00 0.00 0.00 90 1012.4
20260506102602 57 69 2.0 7.0 0.00 0.00 0.00 90 1012.4
20260506102524 57 8 4.0 7.0 0.00 0.00 0.00 90 1012.3
20260506102427 57 265 4.0 8.0 0.00 0.00 0.00 90 1012.3
20260506102333 57 62 3.0 8.0 0.00 0.00 0.00 90 1012.3
20260506102155 57 9 2.0 8.0 0.00 0.00 0.00 90 1012.3
20260506102100 57 62 2.0 8.0 0.00 0.00 0.00 90 1012.3
20260506102002 57 17 2.0 8.0 0.00 0.00 0.00 90 1012.4
20260506101906 57 41 3.0 10.0 0.00 0.00 0.00 90 1012.4
20260506101809 57 37 2.0 10.0 0.00 0.00 0.00 90 1012.4
20260506101657 57 9 3.0 10.0 0.00 0.00 0.00 90 1012.3
20260506101620 57 28 4.0 10.0 0.00 0.00 0.00 90 1012.3
20260506101523 57 29 2.0 10.0 0.00 0.00 0.00 90 1012.4
20260506101406 57 37 1.0 11.0 0.00 0.00 0.00 90 1012.4
20260506101309 57 37 3.0 12.0 0.00 0.00 0.00 90 1012.3
20260506101213 57 44 3.0 12.0 0.00 0.00 0.00 90 1012.4
20260506101056 57 19 2.0 12.0 0.00 0.00 0.00 90 1012.3
20260506101023 57 352 3.0 12.0 0.00 0.00 0.00 90 1012.3
20260506100905 57 42 3.0 12.0 0.00 0.00 0.00 90 1012.3
20260506100809 57 46 5.0 12.0 0.00 0.00 0.00 90 1012.3
20260506100713 57 18 6.0 12.0 0.00 0.00 0.00 90 1012.3
20260506100616 57 37 5.0 12.0 0.00 0.00 0.00 90 1012.2
20260506100457 57 359 4.0 11.0 0.00 0.00 0.00 90 1012.3
20260506100401 57 70 3.0 11.0 0.00 0.00 0.00 90 1012.2
20260506100309 57 342 2.0 11.0 0.00 0.00 0.00 90 1012.2
20260506100212 57 312 0.0 11.0 0.00 0.00 0.00 90 1012.2
20260506100128 57 39 0.0 11.0 0.00 0.00 0.00 90 1012.2
20260506100012 57 67 2.0 11.0 0.00 0.00 0.00 90 1012.1
20260506095855 57 19 5.0 11.0 0.00 0.00 0.00 90 1012.1
20260506095759 57 350 5.0 13.0 0.00 0.00 0.00 90 1012.2
20260506095707 57 25 6.0 17.0 0.00 0.00 0.00 90 1012.1
20260506095610 57 37 3.0 17.0 0.00 0.00 0.00 90 1012.1
20260506095512 57 354 2.0 17.0 0.00 0.00 0.00 90 1012.1
20260506095356 57 357 3.0 17.0 0.00 0.00 0.00 90 1012.2
20260506095259 57 350 5.0 17.0 0.00 0.00 0.00 90 1012.2
20260506095203 57 312 6.0 17.0 0.00 0.00 0.00 90 1012.1
20260506095110 57 32 5.0 17.0 0.00 0.00 0.00 90 1012.2
20260506095013 57 359 4.0 17.0 0.00 0.00 0.00 90 1012.1
20260506094856 57 345 2.0 15.0 0.00 0.00 0.00 90 1012.1
20260506094820 57 4 1.0 10.0 0.00 0.00 0.00 90 1012.1
20260506094702 57 21 0.0 10.0 0.00 0.00 0.00 90 1012.1
20260506094607 57 63 1.0 10.0 0.00 0.00 0.00 90 1012.1
20260506094513 57 44 2.0 10.0 0.00 0.00 0.00 90 1012.1
20260506094357 57 45 2.0 10.0 0.00 0.00 0.00 89 1012.1
20260506094300 57 49 4.0 10.0 0.00 0.00 0.00 90 1012.1
20260506094204 57 15 4.0 12.0 0.00 0.00 0.00 90 1012.0
20260506094108 57 18 2.0 8.0 0.00 0.00 0.00 90 1012.0
20260506094011 57 5 2.0 8.0 0.00 0.00 0.00 89 1012.1
20260506093858 57 25 3.0 8.0 0.00 0.00 0.00 90 1012.1
20260506093801 57 336 2.0 8.0 0.00 0.00 0.00 89 1012.1
20260506093705 57 31 2.0 8.0 0.00 0.00 0.00 90 1012.1
20260506093629 57 30 3.0 8.0 0.00 0.00 0.00 90 1012.2
20260506093510 57 354 4.0 8.0 0.00 0.00 0.00 90 1012.2
20260506093414 57 35 4.0 9.0 0.00 0.00 0.00 90 1012.1
20260506093301 57 30 2.0 9.0 0.00 0.00 0.00 89 1012.1
20260506093204 57 12 2.0 9.0 0.00 0.00 0.00 89 1012.1
20260506093108 57 32 2.0 10.0 0.00 0.00 0.00 89 1012.1
20260506093011 57 25 2.0 10.0 0.00 0.00 0.00 89 1012.2
20260506092854 58 340 2.0 10.0 0.00 0.00 0.00 89 1012.2
20260506092757 58 32 1.0 10.0 0.00 0.00 0.00 89 1012.2
20260506092705 58 27 0.0 10.0 0.00 0.00 0.00 89 1012.2
20260506092608 58 25 2.0 10.0 0.00 0.00 0.00 89 1012.2
20260506092511 58 37 3.0 11.0 0.00 0.00 0.00 89 1012.2
20260506092354 58 32 3.0 11.0 0.00 0.00 0.00 89 1012.1
20260506092258 58 40 4.0 11.0 0.00 0.00 0.00 89 1012.1
20260506092201 58 16 3.0 17.0 0.00 0.00 0.00 89 1012.1
20260506092125 58 15 3.0 17.0 0.00 0.00 0.00 89 1012.1
20260506092010 58 350 4.0 17.0 0.00 0.00 0.00 89 1012.1
20260506091854 58 23 2.0 17.0 0.00 0.00 0.00 89 1012.1
20260506091757 58 15 3.0 17.0 0.00 0.00 0.00 89 1012.1
20260506091721 58 340 3.0 17.0 0.00 0.00 0.00 89 1012.1
20260506091605 58 63 1.0 17.0 0.00 0.00 0.00 89 1012.1
20260506091507 58 25 5.0 17.0 0.00 0.00 0.00 89 1012.1
20260506091354 58 28 5.0 16.0 0.00 0.00 0.00 89 1012.0
20260506091318 58 22 3.0 11.0 0.00 0.00 0.00 89 1012.1
20260506091201 58 54 2.0 11.0 0.00 0.00 0.00 89 1012.1
20260506091125 58 58 2.0 11.0 0.00 0.00 0.00 89 1012.1
20260506091006 58 338 2.0 11.0 0.00 0.00 0.00 89 1012.1
20260506090910 58 73 2.0 11.0 0.00 0.00 0.00 89 1012.1
20260506090834 58 6 3.0 11.0 0.00 0.00 0.00 89 1012.2
20260506090701 58 321 2.0 11.0 0.00 0.00 0.00 89 1012.1
20260506090605 58 61 3.0 11.0 0.00 0.00 0.00 89 1012.1
20260506090528 58 40 4.0 11.0 0.00 0.00 0.00 89 1012.1
20260506090411 58 33 3.0 12.0 0.00 0.00 0.00 89 1012.2
20260506090254 58 23 3.0 12.0 0.00 0.00 0.00 88 1012.1
20260506090217 58 79 2.0 12.0 0.00 0.00 0.00 88 1012.2
20260506090153 58 40 2.0 12.0 0.00 0.00 0.00 88 1012.2
20260506090000 58 64 3.0 12.0 0.00 0.00 0.00 88 1012.2
20260506085904 58 33 5.0 12.0 0.00 0.00 0.00 88 1012.3
20260506085808 58 32 5.0 12.0 0.00 0.00 0.00 88 1012.3
20260506085711 58 42 4.0 12.0 0.00 0.00 0.00 88 1012.3
20260506085635 58 343 4.0 12.0 0.00 0.00 0.00 88 1012.3
20260506085456 58 8 4.0 13.0 0.00 0.00 0.00 88 1012.3
20260506085420 58 49 3.0 10.0 0.00 0.00 0.00 88 1012.3
20260506085323 58 44 1.0 8.0 0.00 0.00 0.00 88 1012.3
20260506085230 58 37 1.0 8.0 0.00 0.00 0.00 88 1012.3
20260506085133 58 58 2.0 9.0 0.00 0.00 0.00 88 1012.3
20260506084954 58 13 3.0 9.0 0.00 0.00 0.00 88 1012.3
20260506084858 58 74 2.0 9.0 0.00 0.00 0.00 88 1012.3
20260506084802 58 39 2.0 9.0 0.00 0.00 0.00 88 1012.3
20260506084705 58 38 3.0 9.0 0.00 0.00 0.00 88 1012.3
20260506084609 58 39 2.0 9.0 0.00 0.00 0.00 88 1012.3
20260506084455 58 47 5.0 10.0 0.00 0.00 0.00 88 1012.3
20260506084358 58 29 5.0 14.0 0.00 0.00 0.00 88 1012.3
20260506084302 58 337 3.0 14.0 0.00 0.00 0.00 88 1012.4
20260506084226 58 37 1.0 14.0 0.00 0.00 0.00 88 1012.3
20260506084110 58 47 3.0 14.0 0.00 0.00 0.00 88 1012.3
20260506084012 58 21 3.0 14.0 0.00 0.00 0.00 88 1012.3
20260506083859 58 23 3.0 14.0 0.00 0.00 0.00 88 1012.3
20260506083803 58 347 5.0 14.0 0.00 0.00 0.00 88 1012.3
20260506083706 58 46 5.0 14.0 0.00 0.00 0.00 88 1012.3
20260506083610 58 25 6.0 14.0 0.00 0.00 0.00 88 1012.3
20260506083512 58 26 4.0 15.0 0.00 0.00 0.00 88 1012.3
20260506083356 58 80 3.0 15.0 0.00 0.00 0.00 87 1012.3
20260506083303 58 50 3.0 15.0 0.00 0.00 0.00 87 1012.3
20260506083207 58 1 2.0 15.0 0.00 0.00 0.00 87 1012.3
20260506083111 58 3 2.0 15.0 0.00 0.00 0.00 87 1012.3
20260506083014 58 21 1.0 15.0 0.00 0.00 0.00 87 1012.3
20260506082857 58 3 5.0 15.0 0.00 0.00 0.00 87 1012.3
20260506082800 58 9 4.0 15.0 0.00 0.00 0.00 87 1012.3
20260506082707 58 348 3.0 15.0 0.00 0.00 0.00 87 1012.3
20260506082612 58 58 3.0 10.0 0.00 0.00 0.00 87 1012.3
20260506082534 58 342 4.0 10.0 0.00 0.00 0.00 87 1012.3
20260506082357 58 353 5.0 10.0 0.00 0.00 0.00 87 1012.3
20260506082300 58 29 3.0 11.0 0.00 0.00 0.00 87 1012.3
20260506082204 58 348 2.0 9.0 0.00 0.00 0.00 87 1012.3
20260506082111 58 63 2.0 9.0 0.00 0.00 0.00 87 1012.3
20260506082014 58 59 1.0 9.0 0.00 0.00 0.00 87 1012.3
20260506081857 58 40 2.0 9.0 0.00 0.00 0.00 87 1012.3
20260506081821 58 354 2.0 9.0 0.00 0.00 0.00 87 1012.3
20260506081703 58 35 1.0 8.0 0.00 0.00 0.00 87 1012.3
20260506081607 58 22 2.0 10.0 0.00 0.00 0.00 87 1012.3
20260506081509 58 1 2.0 10.0 0.00 0.00 0.00 87 1012.3
20260506081357 58 63 1.0 10.0 0.00 0.00 0.00 87 1012.3
20260506081300 58 18 1.0 10.0 0.00 0.00 0.00 87 1012.3
20260506081203 59 39 2.0 10.0 0.00 0.00 0.00 87 1012.3
20260506081107 59 39 2.0 10.0 0.00 0.00 0.00 87 1012.3
20260506081010 59 10 2.0 10.0 0.00 0.00 0.00 86 1012.3
20260506080857 59 44 3.0 10.0 0.00 0.00 0.00 86 1012.3
20260506080801 59 17 2.0 10.0 0.00 0.00 0.00 86 1012.3
20260506080704 59 71 3.0 10.0 0.00 0.00 0.00 86 1012.3
20260506080608 59 32 2.0 10.0 0.00 0.00 0.00 86 1012.2
20260506080510 59 28 3.0 10.0 0.00 0.00 0.00 86 1012.3
20260506080414 59 62 4.0 10.0 0.00 0.00 0.00 86 1012.3
20260506080301 59 85 2.0 10.0 0.00 0.00 0.00 86 1012.3
20260506080204 59 31 2.0 10.0 0.00 0.00 0.00 86 1012.3
20260506080119 59 40 3.0 10.0 0.00 0.00 0.00 86 1012.3
20260506073501 59 36 4.0 13.0 0.00 0.00 0.00 85 1012.4
20260506073401 59 13 4.0 16.0 0.00 0.00 0.00 85 1012.3
20260506073305 59 50 2.0 16.0 0.00 0.00 0.00 85 1012.4
20260506073208 59 44 1.0 16.0 0.00 0.00 0.00 85 1012.3
20260506073056 59 44 5.0 16.0 0.00 0.00 0.00 85 1012.3
20260506072958 59 67 4.0 16.0 0.00 0.00 0.00 85 1012.2
20260506072922 59 44 1.0 16.0 0.00 0.00 0.00 85 1012.3
20260506072805 59 74 1.0 16.0 0.00 0.00 0.00 85 1012.3
20260506072708 59 342 5.0 16.0 0.00 0.00 0.00 85 1012.3
20260506072613 59 40 7.0 16.0 0.00 0.00 0.00 85 1012.3
20260506072459 59 321 5.0 12.0 0.00 0.00 0.00 85 1012.3
20260506072402 59 25 2.0 11.0 0.00 0.00 0.00 85 1012.3
20260506072306 59 76 2.0 11.0 0.00 0.00 0.00 85 1012.2
20260506072210 59 46 1.0 11.0 0.00 0.00 0.00 85 1012.2
20260506072113 59 35 0.0 11.0 0.00 0.00 0.00 85 1012.2
20260506071955 59 64 2.0 11.0 0.00 0.00 0.00 85 1012.2
20260506071903 59 29 3.0 11.0 0.00 0.00 0.00 85 1012.2
20260506071827 59 343 4.0 11.0 0.00 0.00 0.00 85 1012.2
20260506071709 59 47 4.0 11.0 0.00 0.00 0.00 85 1012.2
20260506071613 59 30 3.0 10.0 0.00 0.00 0.00 85 1012.2
20260506071455 59 79 2.0 12.0 0.00 0.00 0.00 85 1012.2
20260506071358 59 48 2.0 15.0 0.00 0.00 0.00 85 1012.2
20260506071322 59 329 3.0 15.0 0.00 0.00 0.00 85 1012.1
20260506071229 59 44 3.0 15.0 0.00 0.00 0.00 85 1012.1
20260506071112 59 22 1.0 15.0 0.00 0.00 0.00 85 1012.1
20260506070954 59 75 2.0 15.0 0.00 0.00 0.00 85 1012.1
20260506070917 59 53 3.0 15.0 0.00 0.00 0.00 85 1012.1
20260506070800 59 25 4.0 15.0 0.00 0.00 0.00 85 1012.1
20260506070703 59 33 5.0 15.0 0.00 0.00 0.00 85 1012.2
20260506070608 59 39 3.0 15.0 0.00 0.00 0.00 85 1012.1
20260506070454 59 25 2.0 10.0 0.00 0.00 0.00 85 1012.1
20260506070417 59 69 2.0 10.0 0.00 0.00 0.00 85 1012.1
20260506070320 59 84 1.0 10.0 0.00 0.00 0.00 85 1012.1
20260506070202 59 63 3.0 16.0 0.00 0.00 0.00 85 1012.1
20260506070117 59 30 5.0 16.0 0.00 0.00 0.00 85 1012.0
20260506062420 59 88 3.0 12.0 0.00 0.00 0.00 82 1012.1
20260506062323 59 56 4.0 12.0 0.00 0.00 0.00 82 1012.1
20260506062206 59 33 4.0 12.0 0.00 0.00 0.00 82 1012.1
20260506062109 59 32 4.0 12.0 0.00 0.00 0.00 82 1012.1
20260506062011 59 8 3.0 12.0 0.00 0.00 0.00 82 1012.1
20260506061859 59 355 4.0 14.0 0.00 0.00 0.00 82 1012.1
20260506061802 59 15 4.0 14.0 0.00 0.00 0.00 82 1012.1
20260506061706 59 336 4.0 14.0 0.00 0.00 0.00 82 1012.1
20260506061611 59 8 5.0 14.0 0.00 0.00 0.00 82 1012.1
20260506061513 59 39 4.0 14.0 0.00 0.00 0.00 82 1012.1
20260506061416 59 51 2.0 14.0 0.00 0.00 0.00 82 1012.0
20260506061303 59 338 3.0 14.0 0.00 0.00 0.00 81 1012.0
20260506061207 59 21 3.0 14.0 0.00 0.00 0.00 81 1012.1
20260506061132 59 355 6.0 15.0 0.00 0.00 0.00 81 1012.1
20260506061013 59 3 6.0 14.0 0.00 0.00 0.00 81 1012.1
20260506060916 59 33 3.0 11.0 0.00 0.00 0.00 81 1012.1
20260506060841 59 25 2.0 11.0 0.00 0.00 0.00 81 1012.1
20260506060659 59 18 3.0 11.0 0.00 0.00 0.00 81 1012.1
20260506060603 59 328 2.0 11.0 0.00 0.00 0.00 81 1012.2
20260506060509 59 33 2.0 11.0 0.00 0.00 0.00 81 1012.1
20260506060413 59 42 4.0 11.0 0.00 0.00 0.00 81 1012.1
20260506060316 59 69 5.0 11.0 0.00 0.00 0.00 81 1012.2
20260506060219 59 18 5.0 11.0 0.00 0.00 0.00 81 1012.2
20260506060133 59 37 4.0 11.0 0.00 0.00 0.00 81 1012.2
20260506051358 60 331 3.0 12.0 0.00 0.00 0.00 77 1012.4
20260506051302 60 25 5.0 13.0 0.00 0.00 0.00 77 1012.4
20260506051206 60 13 4.0 12.0 0.00 0.00 0.00 77 1012.4
20260506051109 60 21 4.0 11.0 0.00 0.00 0.00 77 1012.5
20260506050956 61 342 3.0 11.0 0.00 0.00 0.00 77 1012.5
20260506050859 61 29 2.0 11.0 0.00 0.00 0.00 77 1012.5
20260506050824 61 342 2.0 11.0 0.00 0.00 0.00 77 1012.5
20260506050707 61 33 4.0 11.0 0.00 0.00 0.00 77 1012.5
20260506050611 61 32 5.0 11.0 0.00 0.00 0.00 77 1012.4
20260506050513 61 15 4.0 9.0 0.00 0.00 0.00 77 1012.5
20260506050356 61 22 3.0 8.0 0.00 0.00 0.00 77 1012.5
20260506050324 61 44 3.0 8.0 0.00 0.00 0.00 77 1012.5
20260506050206 61 356 1.0 8.0 0.00 0.00 0.00 76 1012.5
20260506050121 61 65 2.0 10.0 0.00 0.00 0.00 76 1012.5
20260506045100 61 18 5.0 11.0 0.00 0.00 0.00 76 1012.6
20260506045007 61 27 3.0 11.0 0.00 0.00 0.00 76 1012.5
20260506044910 61 328 3.0 13.0 0.00 0.00 0.00 76 1012.5
20260506044813 61 30 2.0 11.0 0.00 0.00 0.00 76 1012.6
20260506044717 60 32 3.0 11.0 0.00 0.00 0.00 76 1012.5
20260506044600 60 101 4.0 16.0 0.00 0.00 0.00 76 1012.6
20260506044502 60 317 4.0 16.0 0.00 0.00 0.00 76 1012.6
20260506044406 60 95 4.0 16.0 0.00 0.00 0.00 76 1012.5
20260506044313 60 23 3.0 16.0 0.00 0.00 0.00 76 1012.6
20260506044157 60 58 5.0 16.0 0.00 0.00 0.00 76 1012.6
20260506044101 60 33 6.0 16.0 0.00 0.00 0.00 76 1012.6
20260506044024 60 328 6.0 16.0 0.00 0.00 0.00 76 1012.6
20260506043907 60 16 5.0 16.0 0.00 0.00 0.00 76 1012.6
20260506043830 60 12 4.0 16.0 0.00 0.00 0.00 76 1012.5
20260506043733 60 32 3.0 10.0 0.00 0.00 0.00 76 1012.5
20260506043559 60 53 4.0 10.0 0.00 0.00 0.00 76 1012.6
20260506043502 60 360 6.0 10.0 0.00 0.00 0.00 76 1012.6
20260506043405 60 357 6.0 10.0 0.00 0.00 0.00 76 1012.5
20260506043309 60 22 5.0 8.0 0.00 0.00 0.00 76 1012.6
20260506043212 60 29 4.0 7.0 0.00 0.00 0.00 76 1012.6
20260506043057 60 37 2.0 7.0 0.00 0.00 0.00 76 1012.6
20260506043003 60 53 1.0 13.0 0.00 0.00 0.00 76 1012.6
20260506042907 60 44 1.0 13.0 0.00 0.00 0.00 76 1012.6
20260506042810 60 41 1.0 13.0 0.00 0.00 0.00 76 1012.6
20260506042653 60 28 1.0 13.0 0.00 0.00 0.00 76 1012.6
20260506042557 60 345 2.0 13.0 0.00 0.00 0.00 75 1012.6
20260506042459 60 353 3.0 13.0 0.00 0.00 0.00 75 1012.6
20260506042406 60 352 3.0 14.0 0.00 0.00 0.00 75 1012.6
20260506042309 60 60 3.0 14.0 0.00 0.00 0.00 75 1012.6
20260506042213 60 8 4.0 14.0 0.00 0.00 0.00 75 1012.6
20260506042057 60 47 2.0 14.0 0.00 0.00 0.00 75 1012.6
20260506041959 60 42 2.0 14.0 0.00 0.00 0.00 75 1012.6
20260506041923 60 44 3.0 14.0 0.00 0.00 0.00 75 1012.6
20260506041826 60 12 4.0 14.0 0.00 0.00 0.00 75 1012.6
20260506041712 60 331 6.0 14.0 0.00 0.00 0.00 75 1012.5
20260506041556 60 23 5.0 14.0 0.00 0.00 0.00 75 1012.5
20260506041458 60 42 4.0 14.0 0.00 0.00 0.00 75 1012.5
20260506041402 60 13 3.0 14.0 0.00 0.00 0.00 75 1012.5
20260506041305 60 79 4.0 14.0 0.00 0.00 0.00 75 1012.5
20260506041209 60 79 5.0 14.0 0.00 0.00 0.00 75 1012.5
20260506041056 60 22 3.0 14.0 0.00 0.00 0.00 75 1012.6
20260506040958 60 37 4.0 14.0 0.00 0.00 0.00 75 1012.5
20260506040902 60 338 6.0 14.0 0.00 0.00 0.00 75 1012.5
20260506040805 60 49 5.0 14.0 0.00 0.00 0.00 75 1012.5
20260506040709 60 33 3.0 16.0 0.00 0.00 0.00 75 1012.5
20260506040556 60 37 3.0 11.0 0.00 0.00 0.00 75 1012.5
20260506040519 60 51 5.0 11.0 0.00 0.00 0.00 75 1012.6
20260506040421 60 342 4.0 11.0 0.00 0.00 0.00 75 1012.5
20260506040304 60 10 4.0 11.0 0.00 0.00 0.00 75 1012.6
20260506040208 60 9 4.0 11.0 0.00 0.00 0.00 74 1012.6
20260506040143 60 33 3.0 11.0 0.00 0.00 0.00 75 1012.5
20260506040007 60 33 2.0 11.0 0.00 0.00 0.00 74 1012.5
20260506035930 60 47 2.0 11.0 0.00 0.00 0.00 74 1012.5
20260506035757 60 347 2.0 11.0 0.00 0.00 0.00 74 1012.5
20260506035701 60 72 3.0 11.0 0.00 0.00 0.00 74 1012.5
20260506035625 60 41 3.0 11.0 0.00 0.00 0.00 74 1012.5
20260506035507 60 56 2.0 11.0 0.00 0.00 0.00 74 1012.5
20260506035410 60 339 5.0 11.0 0.00 0.00 0.00 74 1012.5
20260506035254 60 323 5.0 11.0 0.00 0.00 0.00 74 1012.5
20260506035157 60 9 2.0 13.0 0.00 0.00 0.00 74 1012.5
20260506035105 60 29 3.0 13.0 0.00 0.00 0.00 74 1012.4
20260506035028 60 38 5.0 13.0 0.00 0.00 0.00 74 1012.4
20260506034910 60 60 4.0 13.0 0.00 0.00 0.00 74 1012.4
20260506034813 60 335 3.0 13.0 0.00 0.00 0.00 74 1012.5
20260506034657 60 26 3.0 13.0 0.00 0.00 0.00 74 1012.5
20260506034601 60 37 4.0 13.0 0.00 0.00 0.00 74 1012.6
20260506034508 60 28 5.0 13.0 0.00 0.00 0.00 74 1012.5
20260506034432 60 34 4.0 15.0 0.00 0.00 0.00 74 1012.5
20260506034254 60 41 2.0 10.0 0.00 0.00 0.00 74 1012.5
20260506034158 60 28 3.0 10.0 0.00 0.00 0.00 74 1012.5
20260506034101 60 52 4.0 11.0 0.00 0.00 0.00 73 1012.5
20260506034004 60 37 4.0 11.0 0.00 0.00 0.00 73 1012.4
20260506033907 60 58 4.0 13.0 0.00 0.00 0.00 73 1012.5
20260506033754 60 37 3.0 13.0 0.00 0.00 0.00 73 1012.4
20260506033658 60 59 2.0 13.0 0.00 0.00 0.00 73 1012.5
20260506033602 60 353 2.0 13.0 0.00 0.00 0.00 73 1012.4
20260506033504 60 28 5.0 13.0 0.00 0.00 0.00 73 1012.4
20260506033407 60 33 4.0 13.0 0.00 0.00 0.00 73 1012.4
20260506033255 60 15 3.0 13.0 0.00 0.00 0.00 73 1012.4
20260506033158 60 13 5.0 13.0 0.00 0.00 0.00 73 1012.4
20260506033123 60 347 5.0 12.0 0.00 0.00 0.00 73 1012.4
20260506033005 60 41 5.0 12.0 0.00 0.00 0.00 73 1012.4
20260506032908 60 27 5.0 12.0 0.00 0.00 0.00 73 1012.4
20260506032812 60 28 4.0 10.0 0.00 0.00 0.00 73 1012.3
20260506032655 60 66 3.0 10.0 0.00 0.00 0.00 73 1012.3
20260506032623 60 18 2.0 10.0 0.00 0.00 0.00 73 1012.3
20260506032409 61 1 2.0 10.0 0.00 0.00 0.00 73 1012.3
20260506032312 61 59 2.0 10.0 0.00 0.00 0.00 72 1012.4
20260506032156 61 14 3.0 10.0 0.00 0.00 0.00 72 1012.3
20260506032059 61 352 2.0 11.0 0.00 0.00 0.00 72 1012.3
20260506032006 61 44 1.0 10.0 0.00 0.00 0.00 72 1012.3
20260506031909 61 11 2.0 10.0 0.00 0.00 0.00 72 1012.4
20260506031812 61 58 4.0 10.0 0.00 0.00 0.00 72 1012.3
20260506031655 61 354 2.0 10.0 0.00 0.00 0.00 72 1012.3
20260506031620 61 340 2.0 10.0 0.00 0.00 0.00 72 1012.3
20260506031501 61 42 3.0 10.0 0.00 0.00 0.00 73 1012.4
20260506031405 60 25 4.0 10.0 0.00 0.00 0.00 72 1012.3
20260506031312 60 46 3.0 10.0 0.00 0.00 0.00 72 1012.3
20260506031156 61 353 2.0 10.0 0.00 0.00 0.00 72 1012.3
20260506031059 61 50 3.0 13.0 0.00 0.00 0.00 72 1012.3
20260506031022 61 28 2.0 13.0 0.00 0.00 0.00 72 1012.2
20260506030925 61 15 2.0 13.0 0.00 0.00 0.00 72 1012.3
20260506030807 61 35 2.0 13.0 0.00 0.00 0.00 72 1012.3
20260506030654 61 40 2.0 13.0 0.00 0.00 0.00 72 1012.3
20260506030620 61 47 4.0 13.0 0.00 0.00 0.00 71 1012.3
20260506030501 61 39 5.0 13.0 0.00 0.00 0.00 71 1012.3
20260506030404 61 352 4.0 13.0 0.00 0.00 0.00 71 1012.3
20260506030308 61 337 3.0 13.0 0.00 0.00 0.00 71 1012.3
20260506030212 61 61 4.0 14.0 0.00 0.00 0.00 71 1012.3
20260506030126 61 29 3.0 10.0 0.00 0.00 0.00 71 1012.3
20260506025955 61 59 1.0 9.0 0.00 0.00 0.00 71 1012.4
20260506025858 61 23 2.0 9.0 0.00 0.00 0.00 71 1012.4
20260506025801 61 57 2.0 13.0 0.00 0.00 0.00 71 1012.3
20260506025705 61 32 1.0 13.0 0.00 0.00 0.00 71 1012.3
20260506025609 61 41 3.0 13.0 0.00 0.00 0.00 71 1012.4
20260506025512 61 70 3.0 13.0 0.00 0.00 0.00 71 1012.3
20260506025358 61 11 3.0 13.0 0.00 0.00 0.00 70 1012.4
20260506025305 61 341 4.0 13.0 0.00 0.00 0.00 71 1012.3
20260506025206 61 353 5.0 13.0 0.00 0.00 0.00 70 1012.4
20260506025110 61 30 6.0 13.0 0.00 0.00 0.00 70 1012.3
20260506025012 61 58 5.0 13.0 0.00 0.00 0.00 70 1012.3
20260506024855 61 52 2.0 13.0 0.00 0.00 0.00 70 1012.4
20260506024802 61 55 2.0 13.0 0.00 0.00 0.00 70 1012.3
20260506024706 61 42 4.0 13.0 0.00 0.00 0.00 70 1012.3
20260506024631 61 30 5.0 13.0 0.00 0.00 0.00 70 1012.3
20260506024533 61 348 6.0 13.0 0.00 0.00 0.00 70 1012.3
20260506024355 61 56 5.0 14.0 0.00 0.00 0.00 70 1012.4
20260506024319 61 59 2.0 13.0 0.00 0.00 0.00 70 1012.3
20260506024201 61 77 1.0 13.0 0.00 0.00 0.00 70 1012.3
20260506024109 61 37 3.0 13.0 0.00 0.00 0.00 70 1012.3
20260506024011 61 42 3.0 13.0 0.00 0.00 0.00 70 1012.2
20260506023855 61 29 3.0 13.0 0.00 0.00 0.00 71 1012.3
20260506023758 61 22 6.0 13.0 0.00 0.00 0.00 71 1012.3
20260506023701 61 34 6.0 12.0 0.00 0.00 0.00 71 1012.3
20260506023606 61 44 4.0 12.0 0.00 0.00 0.00 71 1012.3
20260506023513 61 347 2.0 12.0 0.00 0.00 0.00 71 1012.3
20260506023356 61 353 3.0 12.0 0.00 0.00 0.00 71 1012.3
20260506023259 61 23 3.0 12.0 0.00 0.00 0.00 71 1012.4
20260506023223 61 335 3.0 12.0 0.00 0.00 0.00 71 1012.3
20260506023106 61 63 2.0 12.0 0.00 0.00 0.00 71 1012.3
20260506023008 61 44 4.0 12.0 0.00 0.00 0.00 71 1012.3
20260506022856 61 33 3.0 13.0 0.00 0.00 0.00 71 1012.4
20260506022759 61 348 1.0 9.0 0.00 0.00 0.00 71 1012.3
20260506022702 61 333 3.0 9.0 0.00 0.00 0.00 71 1012.4
20260506022607 61 22 3.0 9.0 0.00 0.00 0.00 71 1012.4
20260506022509 61 20 1.0 13.0 0.00 0.00 0.00 71 1012.4
20260506022413 61 10 2.0 13.0 0.00 0.00 0.00 71 1012.4
20260506022300 61 35 3.0 13.0 0.00 0.00 0.00 71 1012.3
20260506022204 61 51 2.0 13.0 0.00 0.00 0.00 71 1012.3
20260506022108 61 13 1.0 13.0 0.00 0.00 0.00 71 1012.4
20260506022010 61 16 3.0 13.0 0.00 0.00 0.00 71 1012.3
20260506021914 61 40 3.0 13.0 0.00 0.00 0.00 71 1012.3
20260506021817 61 89 4.0 13.0 0.00 0.00 0.00 71 1012.3
20260506021659 61 4 6.0 15.0 0.00 0.00 0.00 71 1012.3
20260506021607 61 345 5.0 12.0 0.00 0.00 0.00 71 1012.4
20260506021509 61 35 3.0 12.0 0.00 0.00 0.00 71 1012.3
20260506021433 61 44 4.0 12.0 0.00 0.00 0.00 71 1012.3
20260506021256 61 12 4.0 12.0 0.00 0.00 0.00 70 1012.3
20260506021159 61 14 3.0 12.0 0.00 0.00 0.00 70 1012.2